GEFSSE_prec_meanprecacc_186.txt.gz
Total_Precipitation_Accumulation
0.12 0.07 0.08 0.06 0.08 0.11 0.11 0.12 0.14 0.14 0.12 0.12 0.14 0.17 0.16 0.11 0.09 0.09 0.09 0.10 0.13 0.18 0.20 0.21 0.24 0.27 0.26 0.23 0.18 0.14 0.12 0.12 0.12 0.15 0.22 0.30 0.38 0.39 0.42 0.42 0.56 0.61 0.35
0.11 0.06 0.07 0.05 0.06 0.09 0.10 0.11 0.12 0.12 0.10 0.11 0.12 0.14 0.13 0.12 0.11 0.10 0.10 0.11 0.13 0.17 0.18 0.18 0.19 0.22 0.20 0.14 0.11 0.09 0.08 0.11 0.19 0.30 0.39 0.40 0.48 0.47 0.48 0.44 0.66 0.88 0.42
0.11 0.06 0.06 0.07 0.06 0.07 0.08 0.10 0.11 0.11 0.11 0.11 0.11 0.12 0.12 0.12 0.12 0.12 0.12 0.15 0.20 0.24 0.22 0.21 0.21 0.22 0.19 0.14 0.11 0.09 0.10 0.18 0.33 0.56 0.89 0.87 0.75 0.60 0.54 0.42 0.43 0.44 0.37
0.11 0.06 0.04 0.06 0.06 0.07 0.07 0.10 0.13 0.13 0.11 0.11 0.12 0.12 0.13 0.12 0.12 0.12 0.13 0.17 0.23 0.28 0.28 0.26 0.26 0.22 0.18 0.14 0.13 0.13 0.16 0.27 0.48 0.81 1.38 1.26 1.06 0.89 0.70 0.48 0.41 0.37 0.40
0.12 0.07 0.05 0.06 0.06 0.07 0.07 0.09 0.13 0.14 0.12 0.12 0.13 0.12 0.13 0.13 0.12 0.14 0.17 0.18 0.20 0.25 0.24 0.19 0.17 0.16 0.17 0.14 0.14 0.17 0.25 0.42 0.71 1.10 1.62 1.71 1.60 1.20 0.78 0.55 0.50 0.49 0.51
0.15 0.08 0.05 0.07 0.08 0.09 0.11 0.12 0.14 0.13 0.14 0.15 0.15 0.17 0.17 0.16 0.16 0.18 0.23 0.24 0.23 0.23 0.21 0.17 0.16 0.15 0.17 0.14 0.15 0.23 0.36 0.60 0.81 1.21 1.71 1.91 1.54 1.25 0.92 0.74 0.64 0.60 0.56
0.21 0.13 0.09 0.09 0.11 0.14 0.17 0.19 0.21 0.21 0.20 0.21 0.22 0.23 0.22 0.21 0.22 0.23 0.24 0.26 0.24 0.24 0.22 0.20 0.21 0.18 0.17 0.15 0.17 0.25 0.39 0.62 0.88 1.65 1.81 1.78 1.62 1.32 1.10 0.90 0.73 0.64 0.58
0.26 0.17 0.14 0.12 0.17 0.22 0.25 0.28 0.30 0.27 0.25 0.25 0.26 0.28 0.25 0.22 0.22 0.22 0.22 0.23 0.25 0.28 0.27 0.21 0.15 0.13 0.11 0.13 0.14 0.22 0.37 0.49 0.73 1.30 1.62 1.57 1.31 1.16 1.16 0.93 0.80 0.68 0.59
0.43 0.26 0.22 0.19 0.20 0.28 0.35 0.32 0.30 0.28 0.27 0.29 0.34 0.36 0.32 0.27 0.23 0.22 0.25 0.25 0.27 0.27 0.23 0.17 0.12 0.10 0.10 0.11 0.13 0.18 0.33 0.49 0.73 1.11 1.27 1.37 1.12 1.09 1.22 1.10 0.89 0.73 0.66
0.65 0.47 0.40 0.38 0.36 0.36 0.36 0.37 0.34 0.32 0.33 0.34 0.36 0.36 0.34 0.27 0.25 0.25 0.24 0.25 0.24 0.25 0.24 0.20 0.17 0.16 0.15 0.14 0.16 0.20 0.30 0.40 0.60 0.92 1.52 1.51 1.11 1.27 1.35 1.16 1.00 0.89 0.73
0.74 0.72 0.70 0.59 0.55 0.53 0.46 0.38 0.40 0.35 0.36 0.36 0.35 0.34 0.33 0.36 0.43 0.41 0.34 0.35 0.37 0.37 0.34 0.31 0.28 0.27 0.22 0.20 0.23 0.27 0.28 0.33 0.66 1.18 1.76 1.59 1.30 1.46 1.45 1.25 1.11 1.04 0.93
1.00 1.04 1.04 0.94 0.83 0.77 0.71 0.71 0.69 0.59 0.53 0.48 0.56 0.52 0.50 0.74 0.83 0.73 0.76 0.68 0.64 0.58 0.48 0.46 0.43 0.38 0.34 0.31 0.38 0.37 0.33 0.46 0.93 1.58 1.64 1.22 1.40 1.67 1.68 1.49 1.32 1.26 1.21
1.40 1.15 1.04 1.12 1.13 1.20 1.28 1.12 1.11 1.08 1.02 0.90 1.02 0.95 0.96 1.13 1.04 1.05 1.12 0.97 0.83 0.74 0.69 0.74 0.61 0.50 0.47 0.52 0.60 0.55 0.55 0.66 0.96 1.48 1.58 1.41 1.60 1.89 1.99 1.81 1.58 1.50 1.48
1.71 1.50 1.26 1.19 1.18 1.33 1.50 1.44 1.40 1.34 1.28 1.21 1.25 1.11 1.27 1.42 1.50 1.53 1.64 1.45 1.33 1.24 1.25 1.17 1.07 0.84 0.74 0.73 0.75 0.79 0.86 0.84 1.04 1.35 1.47 1.28 1.43 1.82 2.17 2.13 1.88 1.76 1.72
2.07 1.88 1.67 1.44 1.38 1.48 1.64 1.67 1.63 1.64 1.58 1.66 1.78 1.58 1.57 1.57 1.66 1.94 1.92 2.04 1.73 1.71 1.74 1.63 1.44 1.34 1.19 1.05 0.99 1.00 1.06 1.04 1.14 1.32 1.33 1.33 1.41 1.68 2.06 2.22 2.18 2.18 2.11
2.57 2.23 2.00 1.88 1.68 1.60 1.64 1.76 1.78 1.74 1.87 1.96 2.10 1.97 1.94 2.00 2.13 2.45 2.49 2.42 2.17 2.18 2.37 2.39 2.17 1.93 1.73 1.62 1.42 1.37 1.38 1.42 1.55 1.60 1.55 1.52 1.41 1.46 1.84 2.17 2.39 2.55 2.49
2.72 2.63 2.44 2.31 2.20 1.94 1.83 1.99 2.10 1.97 1.97 2.00 2.19 2.32 2.32 2.37 2.62 2.66 2.88 2.83 2.66 2.60 2.57 2.55 2.73 2.69 2.29 1.99 1.83 1.80 1.84 1.79 1.84 1.89 1.95 1.96 1.74 1.60 1.69 1.93 2.14 2.29 2.37
2.87 2.66 2.63 2.37 2.24 2.33 2.26 2.40 2.46 2.52 2.57 2.44 2.47 2.73 2.82 2.85 2.90 2.92 2.91 2.93 2.89 2.85 3.07 3.13 3.06 3.01 2.83 2.54 2.33 2.12 2.03 2.08 1.93 1.90 1.92 2.02 2.09 1.80 1.61 1.59 1.70 1.82 2.06
2.40 2.47 2.55 2.49 2.36 2.36 2.54 2.81 2.96 3.11 3.30 3.45 3.41 3.56 3.52 3.34 3.29 3.37 3.41 3.49 3.35 3.39 3.35 3.19 3.42 3.33 3.19 2.91 2.47 2.23 2.04 2.06 1.95 1.71 1.73 1.87 1.96 1.86 1.77 1.59 1.61 1.72 1.98
2.28 2.43 2.58 2.73 2.85 2.81 2.84 3.01 3.35 3.52 3.68 4.04 4.12 4.12 4.14 4.14 4.07 4.06 4.00 4.00 3.88 3.78 3.66 3.57 3.55 3.33 3.16 2.90 2.41 2.17 1.98 1.77 1.70 1.69 1.53 1.55 1.64 1.56 1.64 1.64 1.69 1.59 1.74
2.54 2.70 2.65 2.77 3.03 3.25 3.62 3.59 3.74 4.11 4.47 4.62 4.81 4.85 4.71 4.57 4.53 4.38 4.28 4.30 4.13 3.99 3.79 3.65 3.53 3.41 3.09 2.85 2.75 2.40 1.93 1.66 1.53 1.43 1.41 1.39 1.35 1.40 1.59 1.59 1.56 1.52 1.50
2.56 2.77 2.88 2.95 3.31 3.79 4.35 4.85 5.22 5.53 5.53 5.69 5.69 5.59 5.29 5.07 4.90 4.69 4.65 4.51 4.26 4.08 3.86 3.65 3.52 3.43 3.15 2.96 2.94 2.86 2.27 1.82 1.43 1.13 1.15 1.18 1.20 1.28 1.36 1.34 1.32 1.34 1.39
2.53 2.76 2.95 3.27 3.85 4.67 5.16 5.60 6.14 6.45 6.20 5.95 5.69 5.62 5.53 5.43 5.29 5.08 4.96 4.64 4.38 4.10 3.79 3.51 3.33 3.26 3.17 3.06 2.89 2.97 2.59 2.08 1.64 1.29 1.09 1.01 1.08 1.21 1.25 1.26 1.23 1.18 1.25
2.66 2.78 2.99 3.54 4.23 4.87 5.39 5.98 6.54 6.81 6.87 6.70 6.18 5.70 5.28 4.97 4.70 4.53 4.46 4.25 3.98 3.69 3.48 3.21 3.01 2.91 3.01 2.89 2.78 2.59 2.41 2.12 1.88 1.57 1.25 1.09 1.07 1.12 1.18 1.20 1.21 1.22 1.22
2.34 2.79 3.14 3.70 4.34 4.97 5.65 6.36 6.80 7.06 7.06 6.68 5.90 5.15 4.64 4.32 3.99 3.70 3.58 3.46 3.28 3.07 2.88 2.79 2.74 2.64 2.60 2.51 2.39 2.31 2.24 2.12 1.86 1.63 1.40 1.19 1.14 1.14 1.16 1.19 1.31 1.32 1.30
2.23 2.60 3.08 3.40 3.99 4.66 5.23 5.77 5.95 6.12 6.08 5.69 5.25 4.77 4.36 3.82 3.32 2.91 2.70 2.59 2.48 2.35 2.31 2.31 2.32 2.29 2.26 2.24 2.20 2.11 2.04 2.02 1.88 1.76 1.53 1.34 1.32 1.23 1.18 1.16 1.17 1.22 1.27

GEFSSE_prec_meanprecacc_192.txt.gz
Total_Precipitation_Accumulation
0.13 0.10 0.11 0.08 0.09 0.11 0.12 0.12 0.14 0.14 0.12 0.12 0.14 0.17 0.16 0.11 0.10 0.09 0.09 0.11 0.13 0.18 0.21 0.21 0.24 0.27 0.27 0.24 0.19 0.15 0.13 0.13 0.14 0.18 0.24 0.33 0.42 0.43 0.47 0.46 0.58 0.63 0.39
0.12 0.08 0.08 0.06 0.07 0.10 0.11 0.12 0.12 0.12 0.10 0.11 0.12 0.14 0.13 0.12 0.11 0.11 0.10 0.11 0.14 0.17 0.19 0.18 0.19 0.22 0.21 0.15 0.13 0.11 0.09 0.12 0.20 0.32 0.41 0.42 0.52 0.51 0.54 0.51 0.71 0.92 0.47
0.12 0.08 0.07 0.08 0.07 0.08 0.09 0.11 0.12 0.11 0.11 0.11 0.11 0.12 0.12 0.12 0.12 0.12 0.12 0.15 0.20 0.24 0.23 0.21 0.22 0.23 0.20 0.15 0.12 0.10 0.11 0.19 0.34 0.58 0.91 0.89 0.78 0.64 0.59 0.48 0.49 0.50 0.44
0.12 0.07 0.05 0.07 0.07 0.07 0.08 0.10 0.13 0.13 0.11 0.11 0.12 0.12 0.13 0.12 0.12 0.12 0.13 0.17 0.23 0.28 0.28 0.27 0.27 0.23 0.19 0.15 0.14 0.14 0.17 0.28 0.50 0.84 1.40 1.28 1.08 0.93 0.75 0.55 0.46 0.43 0.45
0.14 0.08 0.06 0.07 0.06 0.07 0.08 0.09 0.13 0.14 0.12 0.12 0.13 0.13 0.13 0.13 0.13 0.15 0.17 0.18 0.21 0.26 0.26 0.20 0.18 0.17 0.18 0.15 0.15 0.18 0.26 0.44 0.73 1.13 1.64 1.73 1.63 1.25 0.84 0.61 0.55 0.54 0.55
0.19 0.10 0.06 0.08 0.08 0.09 0.11 0.12 0.14 0.14 0.14 0.15 0.16 0.17 0.18 0.17 0.17 0.19 0.24 0.25 0.24 0.25 0.22 0.18 0.17 0.16 0.18 0.15 0.16 0.24 0.38 0.62 0.84 1.24 1.73 1.93 1.57 1.32 1.01 0.81 0.70 0.65 0.59
0.23 0.15 0.09 0.10 0.12 0.15 0.18 0.20 0.22 0.22 0.21 0.22 0.23 0.24 0.23 0.22 0.23 0.24 0.26 0.28 0.26 0.26 0.24 0.21 0.22 0.20 0.18 0.16 0.18 0.26 0.41 0.64 0.90 1.68 1.83 1.81 1.65 1.38 1.19 1.01 0.81 0.70 0.62
0.29 0.20 0.16 0.13 0.18 0.24 0.27 0.29 0.31 0.29 0.26 0.26 0.28 0.29 0.26 0.24 0.24 0.24 0.25 0.27 0.29 0.32 0.31 0.24 0.18 0.15 0.14 0.16 0.16 0.23 0.39 0.51 0.74 1.32 1.65 1.59 1.33 1.21 1.24 1.03 0.89 0.75 0.65
0.47 0.32 0.25 0.21 0.22 0.30 0.37 0.35 0.33 0.31 0.30 0.32 0.36 0.38 0.35 0.30 0.26 0.26 0.30 0.31 0.31 0.31 0.27 0.20 0.16 0.14 0.14 0.15 0.16 0.21 0.35 0.52 0.75 1.13 1.29 1.40 1.14 1.13 1.30 1.19 0.97 0.80 0.72
0.71 0.54 0.44 0.40 0.38 0.37 0.39 0.41 0.40 0.37 0.38 0.38 0.39 0.39 0.37 0.30 0.30 0.33 0.33 0.34 0.30 0.30 0.30 0.26 0.23 0.22 0.21 0.20 0.22 0.25 0.34 0.43 0.62 0.94 1.53 1.53 1.15 1.33 1.43 1.26 1.09 0.96 0.80
0.78 0.77 0.74 0.62 0.58 0.56 0.48 0.42 0.48 0.43 0.41 0.39 0.38 0.37 0.38 0.42 0.50 0.50 0.42 0.42 0.43 0.44 0.44 0.40 0.37 0.35 0.31 0.28 0.31 0.35 0.33 0.36 0.68 1.20 1.78 1.62 1.34 1.53 1.55 1.35 1.21 1.14 1.02
1.03 1.08 1.08 0.98 0.86 0.80 0.74 0.76 0.77 0.66 0.58 0.51 0.58 0.55 0.52 0.77 0.87 0.76 0.80 0.74 0.70 0.64 0.56 0.55 0.51 0.47 0.42 0.38 0.45 0.44 0.38 0.50 0.96 1.60 1.66 1.25 1.44 1.74 1.79 1.60 1.43 1.39 1.34
1.42 1.19 1.07 1.15 1.15 1.22 1.30 1.14 1.13 1.11 1.05 0.93 1.04 0.97 0.99 1.15 1.06 1.08 1.15 1.01 0.88 0.79 0.75 0.82 0.71 0.58 0.53 0.58 0.66 0.60 0.59 0.69 0.99 1.51 1.60 1.44 1.64 1.94 2.07 1.92 1.69 1.61 1.62
1.73 1.53 1.29 1.22 1.20 1.35 1.52 1.46 1.42 1.36 1.30 1.23 1.28 1.14 1.31 1.46 1.55 1.57 1.67 1.49 1.38 1.28 1.30 1.25 1.15 0.95 0.85 0.82 0.82 0.86 0.91 0.88 1.07 1.38 1.49 1.31 1.47 1.87 2.26 2.24 1.99 1.86 1.83
2.08 1.90 1.69 1.47 1.41 1.50 1.66 1.69 1.65 1.68 1.61 1.69 1.81 1.62 1.62 1.63 1.73 2.01 1.99 2.10 1.78 1.76 1.80 1.70 1.52 1.42 1.28 1.15 1.08 1.09 1.14 1.10 1.18 1.35 1.35 1.35 1.46 1.74 2.15 2.33 2.28 2.28 2.21
2.59 2.26 2.04 1.92 1.72 1.63 1.67 1.79 1.81 1.78 1.92 2.01 2.15 2.03 2.03 2.08 2.21 2.53 2.56 2.48 2.22 2.25 2.44 2.47 2.24 2.00 1.80 1.69 1.49 1.46 1.45 1.48 1.60 1.63 1.58 1.54 1.45 1.51 1.91 2.28 2.51 2.69 2.64
2.79 2.68 2.49 2.36 2.26 2.00 1.89 2.04 2.14 2.02 2.03 2.09 2.30 2.42 2.41 2.46 2.70 2.73 2.94 2.88 2.71 2.67 2.65 2.63 2.80 2.77 2.35 2.06 1.89 1.87 1.90 1.85 1.89 1.94 1.98 1.99 1.77 1.65 1.75 2.02 2.26 2.43 2.51
2.97 2.76 2.70 2.43 2.32 2.41 2.34 2.47 2.51 2.58 2.65 2.56 2.62 2.88 2.94 2.96 3.02 3.00 2.96 2.97 2.93 2.93 3.15 3.22 3.14 3.08 2.90 2.61 2.41 2.19 2.09 2.14 1.99 1.95 1.96 2.05 2.12 1.83 1.66 1.65 1.79 1.94 2.20
2.48 2.57 2.67 2.61 2.49 2.47 2.62 2.88 3.02 3.19 3.39 3.55 3.54 3.75 3.69 3.46 3.39 3.43 3.46 3.54 3.41 3.44 3.42 3.28 3.51 3.42 3.25 2.96 2.53 2.28 2.09 2.11 2.00 1.76 1.78 1.90 1.99 1.89 1.80 1.63 1.67 1.80 2.08
2.36 2.52 2.69 2.85 2.96 2.88 2.90 3.07 3.43 3.62 3.78 4.14 4.22 4.23 4.29 4.26 4.16 4.13 4.06 4.06 3.94 3.85 3.73 3.65 3.62 3.40 3.22 2.95 2.46 2.21 2.02 1.81 1.74 1.74 1.57 1.60 1.68 1.61 1.68 1.68 1.73 1.65 1.83
2.61 2.78 2.76 2.88 3.13 3.35 3.70 3.67 3.84 4.24 4.59 4.74 4.91 4.92 4.80 4.66 4.60 4.44 4.33 4.35 4.18 4.03 3.84 3.70 3.58 3.47 3.15 2.91 2.80 2.44 1.96 1.69 1.57 1.48 1.46 1.45 1.41 1.45 1.63 1.64 1.62 1.58 1.56
2.66 2.89 3.01 3.10 3.45 3.92 4.45 4.96 5.34 5.68 5.67 5.79 5.77 5.65 5.34 5.12 4.96 4.74 4.70 4.56 4.32 4.15 3.92 3.71 3.58 3.48 3.20 3.02 2.99 2.90 2.30 1.84 1.45 1.16 1.20 1.23 1.25 1.33 1.40 1.38 1.37 1.39 1.44
2.67 2.92 3.10 3.39 3.95 4.77 5.26 5.71 6.24 6.54 6.30 6.06 5.78 5.69 5.60 5.49 5.35 5.14 5.01 4.70 4.45 4.18 3.87 3.59 3.41 3.32 3.21 3.11 2.95 3.02 2.61 2.10 1.65 1.30 1.11 1.05 1.12 1.25 1.29 1.30 1.27 1.21 1.28
2.75 2.88 3.07 3.62 4.30 4.96 5.48 6.07 6.63 6.89 6.96 6.79 6.25 5.76 5.34 5.04 4.78 4.61 4.55 4.34 4.07 3.77 3.54 3.28 3.10 3.00 3.08 2.94 2.83 2.64 2.43 2.15 1.91 1.59 1.26 1.11 1.10 1.15 1.22 1.23 1.24 1.25 1.25
2.40 2.85 3.19 3.76 4.40 5.04 5.74 6.45 6.87 7.12 7.14 6.77 5.99 5.21 4.68 4.36 4.06 3.80 3.70 3.57 3.39 3.16 2.95 2.87 2.84 2.73 2.67 2.57 2.43 2.35 2.27 2.15 1.90 1.67 1.43 1.21 1.16 1.16 1.19 1.23 1.34 1.34 1.34
2.26 2.64 3.12 3.44 4.04 4.70 5.28 5.82 6.01 6.19 6.15 5.75 5.32 4.84 4.40 3.86 3.37 3.00 2.83 2.71 2.58 2.45 2.41 2.41 2.42 2.36 2.32 2.30 2.26 2.16 2.08 2.07 1.93 1.81 1.58 1.36 1.34 1.26 1.21 1.19 1.20 1.25 1.30

GEFSSE_prec_meanprecacc_198.txt.gz
Total_Precipitation_Accumulation
0.13 0.11 0.12 0.09 0.10 0.12 0.13 0.13 0.14 0.15 0.13 0.13 0.16 0.18 0.16 0.11 0.10 0.09 0.09 0.11 0.14 0.19 0.22 0.22 0.25 0.27 0.27 0.24 0.20 0.16 0.14 0.14 0.15 0.18 0.26 0.35 0.44 0.45 0.49 0.47 0.59 0.65 0.41
0.13 0.09 0.09 0.07 0.08 0.10 0.12 0.13 0.13 0.13 0.12 0.12 0.13 0.15 0.14 0.13 0.11 0.11 0.10 0.11 0.14 0.18 0.20 0.18 0.19 0.23 0.21 0.16 0.14 0.12 0.10 0.13 0.20 0.33 0.43 0.43 0.54 0.54 0.57 0.53 0.73 0.94 0.49
0.12 0.08 0.08 0.08 0.07 0.09 0.10 0.12 0.12 0.12 0.12 0.12 0.12 0.13 0.13 0.13 0.13 0.13 0.13 0.16 0.21 0.25 0.24 0.22 0.22 0.24 0.21 0.16 0.14 0.12 0.13 0.20 0.35 0.60 0.93 0.91 0.80 0.66 0.62 0.52 0.52 0.53 0.46
0.12 0.08 0.06 0.08 0.08 0.08 0.09 0.12 0.14 0.14 0.13 0.12 0.13 0.13 0.14 0.13 0.13 0.14 0.14 0.18 0.25 0.30 0.30 0.29 0.27 0.24 0.20 0.16 0.15 0.15 0.19 0.30 0.52 0.85 1.41 1.29 1.11 0.97 0.79 0.61 0.51 0.46 0.48
0.15 0.09 0.07 0.08 0.07 0.08 0.09 0.11 0.15 0.16 0.14 0.13 0.14 0.14 0.14 0.14 0.14 0.16 0.19 0.20 0.23 0.27 0.27 0.22 0.18 0.18 0.19 0.16 0.16 0.20 0.28 0.46 0.75 1.14 1.65 1.75 1.67 1.30 0.88 0.66 0.60 0.57 0.58
0.21 0.12 0.08 0.09 0.10 0.11 0.12 0.13 0.16 0.16 0.15 0.16 0.17 0.19 0.19 0.18 0.18 0.21 0.26 0.27 0.27 0.27 0.25 0.21 0.19 0.18 0.19 0.16 0.17 0.25 0.38 0.63 0.85 1.25 1.75 1.95 1.60 1.35 1.04 0.84 0.75 0.69 0.63
0.26 0.18 0.12 0.13 0.15 0.17 0.20 0.21 0.24 0.24 0.23 0.24 0.25 0.27 0.25 0.25 0.26 0.27 0.30 0.33 0.31 0.31 0.29 0.26 0.26 0.24 0.21 0.18 0.20 0.28 0.42 0.66 0.92 1.69 1.86 1.83 1.67 1.40 1.22 1.04 0.86 0.75 0.67
0.32 0.23 0.20 0.17 0.22 0.27 0.29 0.31 0.33 0.31 0.29 0.30 0.32 0.32 0.29 0.27 0.26 0.28 0.30 0.32 0.35 0.39 0.38 0.31 0.24 0.21 0.18 0.19 0.19 0.26 0.42 0.54 0.77 1.35 1.68 1.63 1.35 1.22 1.27 1.08 0.94 0.81 0.71
0.50 0.36 0.30 0.26 0.26 0.33 0.40 0.38 0.36 0.34 0.33 0.34 0.39 0.42 0.37 0.32 0.29 0.30 0.34 0.36 0.38 0.37 0.33 0.28 0.24 0.21 0.19 0.20 0.21 0.25 0.39 0.55 0.78 1.16 1.32 1.43 1.15 1.15 1.33 1.24 1.02 0.86 0.78
0.77 0.62 0.52 0.46 0.42 0.42 0.43 0.44 0.41 0.39 0.40 0.40 0.42 0.42 0.39 0.32 0.32 0.35 0.37 0.39 0.36 0.35 0.35 0.34 0.33 0.32 0.30 0.27 0.28 0.31 0.40 0.49 0.67 0.97 1.57 1.56 1.18 1.36 1.46 1.30 1.14 1.03 0.87
0.85 0.92 0.89 0.69 0.62 0.62 0.54 0.46 0.50 0.46 0.46 0.43 0.41 0.40 0.40 0.43 0.52 0.53 0.46 0.46 0.47 0.49 0.49 0.49 0.47 0.45 0.41 0.38 0.41 0.43 0.41 0.43 0.74 1.26 1.82 1.66 1.37 1.57 1.59 1.41 1.28 1.22 1.10
1.05 1.13 1.17 1.05 0.91 0.85 0.80 0.82 0.83 0.73 0.64 0.55 0.62 0.58 0.57 0.81 0.90 0.80 0.84 0.78 0.74 0.70 0.63 0.63 0.62 0.58 0.54 0.50 0.56 0.54 0.46 0.56 1.02 1.64 1.69 1.28 1.47 1.79 1.87 1.68 1.50 1.46 1.43
1.44 1.21 1.12 1.19 1.19 1.26 1.36 1.21 1.19 1.20 1.12 0.99 1.09 1.01 1.04 1.21 1.11 1.13 1.22 1.08 0.95 0.87 0.84 0.92 0.81 0.67 0.63 0.69 0.77 0.71 0.68 0.76 1.05 1.55 1.64 1.47 1.66 1.98 2.13 2.01 1.77 1.69 1.72
1.77 1.57 1.33 1.25 1.24 1.39 1.55 1.48 1.45 1.41 1.36 1.29 1.33 1.19 1.36 1.52 1.61 1.64 1.75 1.56 1.46 1.36 1.39 1.34 1.26 1.05 0.94 0.91 0.91 0.96 1.00 0.96 1.14 1.44 1.54 1.35 1.50 1.90 2.31 2.33 2.08 1.94 1.91
2.13 1.95 1.75 1.52 1.45 1.53 1.70 1.73 1.70 1.71 1.65 1.74 1.87 1.67 1.68 1.69 1.80 2.09 2.08 2.18 1.85 1.84 1.89 1.80 1.60 1.51 1.38 1.23 1.15 1.16 1.22 1.16 1.24 1.42 1.40 1.39 1.49 1.78 2.19 2.40 2.37 2.37 2.30
2.63 2.29 2.08 1.96 1.75 1.66 1.71 1.84 1.87 1.83 1.96 2.05 2.19 2.08 2.08 2.15 2.29 2.62 2.67 2.57 2.30 2.30 2.50 2.55 2.32 2.10 1.90 1.79 1.58 1.54 1.54 1.56 1.66 1.69 1.63 1.58 1.49 1.55 1.96 2.34 2.60 2.78 2.75
2.81 2.70 2.52 2.40 2.29 2.04 1.96 2.12 2.21 2.09 2.09 2.14 2.35 2.47 2.47 2.52 2.77 2.81 3.03 2.95 2.78 2.76 2.75 2.72 2.89 2.87 2.45 2.16 2.00 1.96 1.98 1.92 1.97 2.00 2.03 2.02 1.80 1.68 1.79 2.06 2.32 2.52 2.61
2.99 2.79 2.76 2.48 2.38 2.49 2.44 2.58 2.59 2.65 2.71 2.62 2.67 2.93 2.98 3.00 3.06 3.06 3.01 3.01 2.97 2.98 3.23 3.31 3.24 3.19 3.00 2.71 2.50 2.27 2.17 2.22 2.05 2.01 2.00 2.08 2.15 1.86 1.68 1.67 1.82 2.00 2.27
2.49 2.60 2.74 2.69 2.58 2.56 2.71 2.98 3.10 3.26 3.44 3.62 3.63 3.82 3.74 3.50 3.44 3.49 3.50 3.57 3.45 3.50 3.48 3.34 3.59 3.51 3.35 3.04 2.59 2.34 2.15 2.17 2.06 1.82 1.83 1.95 2.03 1.92 1.84 1.66 1.70 1.84 2.13
2.38 2.54 2.74 2.93 3.04 2.96 2.98 3.14 3.50 3.69 3.86 4.24 4.30 4.29 4.34 4.31 4.20 4.19 4.10 4.10 3.99 3.90 3.78 3.71 3.68 3.47 3.31 3.04 2.52 2.26 2.06 1.86 1.80 1.79 1.63 1.66 1.73 1.64 1.71 1.71 1.78 1.69 1.87
2.62 2.81 2.81 2.96 3.24 3.46 3.83 3.80 3.97 4.37 4.71 4.83 4.96 4.96 4.84 4.71 4.65 4.49 4.38 4.40 4.23 4.07 3.88 3.75 3.63 3.53 3.21 2.99 2.86 2.49 2.00 1.72 1.60 1.52 1.51 1.50 1.45 1.48 1.67 1.66 1.66 1.63 1.61
2.68 2.93 3.06 3.17 3.55 4.04 4.57 5.09 5.46 5.79 5.76 5.84 5.81 5.69 5.38 5.17 5.00 4.79 4.74 4.60 4.36 4.19 3.97 3.76 3.63 3.53 3.25 3.08 3.06 2.97 2.35 1.88 1.48 1.19 1.24 1.28 1.29 1.36 1.43 1.40 1.40 1.43 1.48
2.70 2.96 3.15 3.44 4.01 4.83 5.32 5.78 6.31 6.61 6.36 6.09 5.81 5.72 5.62 5.53 5.39 5.18 5.06 4.75 4.50 4.23 3.92 3.64 3.47 3.38 3.28 3.18 3.04 3.11 2.68 2.14 1.69 1.34 1.15 1.08 1.16 1.29 1.32 1.33 1.30 1.25 1.32
2.78 2.91 3.11 3.65 4.33 4.98 5.51 6.12 6.70 6.97 7.04 6.86 6.30 5.79 5.38 5.07 4.81 4.65 4.59 4.39 4.13 3.83 3.61 3.35 3.19 3.09 3.19 3.04 2.93 2.76 2.56 2.27 2.02 1.66 1.32 1.16 1.14 1.19 1.26 1.27 1.27 1.28 1.30
2.43 2.88 3.22 3.77 4.42 5.05 5.76 6.48 6.90 7.17 7.20 6.85 6.06 5.27 4.73 4.41 4.11 3.84 3.74 3.62 3.44 3.22 3.03 2.94 2.90 2.80 2.76 2.66 2.53 2.46 2.40 2.29 2.04 1.79 1.51 1.28 1.22 1.20 1.22 1.26 1.37 1.38 1.37
2.30 2.67 3.15 3.47 4.06 4.72 5.31 5.86 6.03 6.22 6.18 5.79 5.37 4.89 4.47 3.94 3.45 3.07 2.90 2.77 2.64 2.52 2.48 2.47 2.47 2.41 2.38 2.36 2.32 2.23 2.17 2.15 2.02 1.89 1.64 1.41 1.39 1.30 1.24 1.22 1.23 1.28 1.34

GEFSSE_prec_meanprecacc_204.txt.gz
Total_Precipitation_Accumulation
0.14 0.12 0.12 0.09 0.10 0.12 0.13 0.14 0.15 0.15 0.13 0.14 0.16 0.19 0.17 0.12 0.10 0.10 0.09 0.11 0.14 0.20 0.23 0.23 0.25 0.28 0.28 0.25 0.21 0.17 0.15 0.15 0.16 0.19 0.27 0.36 0.45 0.47 0.50 0.49 0.62 0.70 0.47
0.13 0.10 0.10 0.07 0.08 0.10 0.12 0.13 0.14 0.13 0.12 0.12 0.14 0.15 0.15 0.14 0.12 0.11 0.11 0.12 0.15 0.19 0.21 0.20 0.20 0.23 0.22 0.16 0.15 0.13 0.11 0.15 0.22 0.34 0.43 0.44 0.54 0.55 0.58 0.55 0.76 1.03 0.57
0.12 0.09 0.09 0.09 0.08 0.09 0.11 0.13 0.13 0.13 0.13 0.13 0.13 0.14 0.14 0.14 0.14 0.14 0.14 0.16 0.22 0.26 0.25 0.23 0.24 0.25 0.22 0.17 0.15 0.13 0.14 0.22 0.37 0.61 0.94 0.92 0.82 0.69 0.63 0.54 0.56 0.59 0.51
0.13 0.09 0.07 0.09 0.08 0.09 0.10 0.12 0.15 0.15 0.14 0.14 0.15 0.15 0.15 0.14 0.14 0.15 0.16 0.19 0.26 0.31 0.31 0.30 0.28 0.25 0.21 0.17 0.16 0.17 0.21 0.32 0.53 0.87 1.42 1.31 1.15 1.04 0.83 0.65 0.54 0.49 0.51
0.16 0.11 0.09 0.09 0.08 0.09 0.09 0.11 0.16 0.18 0.16 0.15 0.15 0.15 0.16 0.16 0.15 0.17 0.21 0.22 0.24 0.29 0.29 0.23 0.20 0.20 0.21 0.18 0.19 0.22 0.30 0.48 0.77 1.15 1.66 1.79 1.78 1.43 0.95 0.71 0.64 0.62 0.62
0.22 0.15 0.10 0.11 0.11 0.12 0.12 0.14 0.18 0.18 0.18 0.18 0.19 0.21 0.21 0.20 0.20 0.22 0.27 0.28 0.28 0.30 0.28 0.25 0.23 0.22 0.23 0.20 0.21 0.29 0.41 0.65 0.87 1.26 1.77 1.97 1.68 1.45 1.09 0.89 0.79 0.73 0.67
0.29 0.21 0.14 0.14 0.16 0.18 0.21 0.23 0.26 0.26 0.25 0.27 0.29 0.30 0.28 0.27 0.27 0.28 0.31 0.34 0.32 0.33 0.32 0.31 0.30 0.28 0.26 0.23 0.24 0.32 0.46 0.69 0.94 1.71 1.88 1.86 1.71 1.45 1.26 1.08 0.91 0.80 0.72
0.35 0.27 0.23 0.20 0.23 0.29 0.31 0.33 0.36 0.34 0.32 0.33 0.36 0.37 0.33 0.29 0.28 0.29 0.31 0.33 0.36 0.41 0.40 0.34 0.29 0.26 0.24 0.24 0.24 0.31 0.46 0.58 0.81 1.38 1.70 1.66 1.40 1.28 1.33 1.13 0.99 0.86 0.76
0.53 0.40 0.34 0.28 0.29 0.37 0.44 0.41 0.40 0.37 0.36 0.36 0.42 0.45 0.41 0.34 0.30 0.31 0.36 0.38 0.39 0.39 0.35 0.31 0.27 0.25 0.24 0.25 0.27 0.31 0.45 0.61 0.83 1.19 1.35 1.46 1.21 1.22 1.40 1.29 1.06 0.90 0.83
0.80 0.65 0.55 0.50 0.47 0.48 0.49 0.48 0.44 0.41 0.42 0.42 0.43 0.44 0.43 0.36 0.34 0.37 0.39 0.42 0.38 0.37 0.37 0.37 0.37 0.36 0.34 0.31 0.32 0.35 0.46 0.55 0.73 1.02 1.61 1.60 1.23 1.44 1.55 1.36 1.19 1.07 0.92
0.88 0.93 0.91 0.74 0.68 0.69 0.62 0.53 0.55 0.49 0.47 0.45 0.43 0.42 0.43 0.49 0.58 0.58 0.50 0.51 0.50 0.51 0.53 0.53 0.51 0.50 0.46 0.43 0.46 0.49 0.49 0.49 0.81 1.35 1.89 1.73 1.45 1.65 1.69 1.49 1.34 1.27 1.15
1.08 1.15 1.19 1.12 0.99 0.93 0.87 0.90 0.89 0.78 0.68 0.58 0.65 0.62 0.62 0.88 0.98 0.85 0.90 0.84 0.79 0.76 0.70 0.69 0.67 0.63 0.59 0.56 0.63 0.62 0.53 0.62 1.08 1.71 1.77 1.37 1.56 1.87 1.95 1.75 1.56 1.51 1.48
1.45 1.23 1.14 1.25 1.26 1.34 1.43 1.27 1.25 1.26 1.18 1.04 1.16 1.09 1.11 1.29 1.20 1.19 1.30 1.17 1.04 0.97 0.94 1.02 0.90 0.73 0.69 0.75 0.83 0.77 0.73 0.81 1.11 1.60 1.72 1.55 1.73 2.04 2.20 2.08 1.83 1.75 1.77
1.78 1.59 1.37 1.30 1.28 1.43 1.61 1.53 1.48 1.46 1.43 1.35 1.39 1.26 1.43 1.61 1.70 1.72 1.83 1.65 1.56 1.49 1.51 1.47 1.37 1.15 1.03 1.00 0.99 1.03 1.06 1.03 1.21 1.51 1.61 1.42 1.56 1.94 2.35 2.38 2.14 2.01 1.97
2.14 1.99 1.80 1.56 1.48 1.57 1.76 1.78 1.74 1.76 1.70 1.81 1.94 1.74 1.74 1.78 1.88 2.18 2.16 2.26 1.92 1.91 1.98 1.91 1.71 1.63 1.48 1.33 1.25 1.25 1.30 1.24 1.31 1.48 1.46 1.45 1.56 1.83 2.24 2.45 2.42 2.42 2.36
2.64 2.31 2.11 2.00 1.81 1.75 1.79 1.90 1.94 1.89 2.01 2.11 2.27 2.15 2.16 2.23 2.37 2.71 2.78 2.67 2.37 2.36 2.57 2.61 2.40 2.19 1.99 1.89 1.67 1.64 1.65 1.65 1.73 1.76 1.68 1.64 1.54 1.59 1.99 2.38 2.65 2.83 2.79
2.82 2.72 2.55 2.44 2.37 2.14 2.06 2.21 2.30 2.17 2.15 2.21 2.43 2.55 2.56 2.62 2.88 2.92 3.13 3.05 2.88 2.83 2.83 2.80 2.98 2.97 2.54 2.25 2.09 2.05 2.08 2.03 2.06 2.08 2.11 2.09 1.85 1.72 1.82 2.09 2.36 2.56 2.67
3.01 2.81 2.77 2.51 2.43 2.56 2.54 2.70 2.72 2.75 2.82 2.71 2.77 3.02 3.08 3.12 3.22 3.23 3.15 3.12 3.07 3.08 3.32 3.38 3.32 3.28 3.09 2.78 2.58 2.34 2.24 2.30 2.13 2.09 2.09 2.17 2.21 1.91 1.72 1.70 1.85 2.03 2.31
2.51 2.61 2.76 2.73 2.63 2.63 2.79 3.11 3.26 3.41 3.59 3.74 3.74 3.93 3.86 3.67 3.61 3.65 3.62 3.67 3.54 3.58 3.56 3.41 3.68 3.60 3.44 3.13 2.66 2.42 2.21 2.23 2.12 1.87 1.90 2.01 2.08 1.96 1.87 1.69 1.73 1.87 2.16
2.39 2.55 2.76 2.95 3.08 3.01 3.06 3.26 3.67 3.88 4.04 4.41 4.44 4.41 4.46 4.47 4.35 4.31 4.20 4.18 4.09 4.00 3.87 3.79 3.79 3.57 3.41 3.16 2.62 2.38 2.15 1.92 1.86 1.84 1.67 1.71 1.78 1.68 1.75 1.76 1.83 1.73 1.90
2.64 2.82 2.82 2.98 3.27 3.50 3.90 3.88 4.06 4.49 4.85 5.00 5.11 5.05 4.93 4.80 4.76 4.60 4.48 4.50 4.32 4.15 3.95 3.82 3.74 3.62 3.31 3.10 2.97 2.60 2.10 1.80 1.67 1.57 1.55 1.55 1.49 1.52 1.71 1.72 1.72 1.68 1.65
2.69 2.94 3.08 3.18 3.57 4.06 4.62 5.15 5.54 5.87 5.88 5.98 5.95 5.80 5.48 5.26 5.09 4.88 4.85 4.72 4.46 4.27 4.04 3.85 3.74 3.63 3.33 3.19 3.16 3.07 2.44 1.96 1.55 1.23 1.29 1.32 1.33 1.40 1.46 1.44 1.43 1.49 1.54
2.72 2.99 3.17 3.45 4.03 4.84 5.35 5.82 6.38 6.69 6.43 6.17 5.89 5.79 5.68 5.59 5.46 5.27 5.16 4.87 4.61 4.32 4.00 3.74 3.58 3.48 3.37 3.27 3.14 3.22 2.78 2.22 1.76 1.40 1.20 1.13 1.21 1.35 1.37 1.37 1.32 1.29 1.37
2.81 2.94 3.13 3.67 4.36 5.01 5.55 6.16 6.75 7.03 7.10 6.91 6.35 5.85 5.42 5.12 4.87 4.74 4.68 4.48 4.23 3.93 3.70 3.44 3.30 3.20 3.29 3.14 3.04 2.89 2.69 2.39 2.12 1.76 1.42 1.23 1.20 1.24 1.30 1.30 1.29 1.31 1.34
2.46 2.92 3.26 3.82 4.48 5.11 5.82 6.54 6.97 7.23 7.26 6.90 6.10 5.31 4.78 4.45 4.15 3.90 3.83 3.73 3.55 3.33 3.12 3.03 3.00 2.90 2.86 2.75 2.63 2.59 2.57 2.51 2.24 1.94 1.62 1.36 1.28 1.25 1.27 1.31 1.41 1.42 1.43
2.34 2.72 3.21 3.54 4.13 4.80 5.38 5.94 6.12 6.29 6.25 5.85 5.41 4.93 4.51 3.98 3.49 3.12 2.96 2.87 2.74 2.61 2.57 2.56 2.57 2.50 2.46 2.44 2.41 2.31 2.24 2.26 2.14 2.02 1.74 1.50 1.46 1.35 1.29 1.27 1.27 1.34 1.41

GEFSSE_prec_meanprecacc_210.txt.gz
Total_Precipitation_Accumulation
0.16 0.16 0.18 0.13 0.12 0.13 0.13 0.14 0.15 0.15 0.13 0.14 0.16 0.19 0.17 0.12 0.10 0.10 0.09 0.12 0.15 0.21 0.23 0.24 0.27 0.30 0.30 0.28 0.24 0.20 0.18 0.18 0.20 0.23 0.31 0.41 0.50 0.52 0.56 0.55 0.67 0.73 0.53
0.14 0.12 0.12 0.11 0.11 0.12 0.13 0.13 0.14 0.13 0.12 0.12 0.14 0.15 0.15 0.14 0.12 0.12 0.11 0.12 0.16 0.20 0.22 0.21 0.22 0.25 0.24 0.19 0.18 0.16 0.15 0.18 0.25 0.37 0.48 0.49 0.60 0.60 0.63 0.60 0.82 1.08 0.63
0.13 0.10 0.10 0.13 0.13 0.11 0.12 0.13 0.13 0.13 0.14 0.14 0.14 0.14 0.15 0.14 0.14 0.14 0.15 0.17 0.23 0.27 0.26 0.24 0.25 0.27 0.24 0.19 0.18 0.16 0.18 0.25 0.40 0.64 0.99 0.96 0.88 0.76 0.70 0.60 0.61 0.65 0.59
0.13 0.10 0.08 0.11 0.14 0.11 0.11 0.13 0.15 0.15 0.14 0.14 0.15 0.15 0.15 0.14 0.15 0.16 0.17 0.20 0.27 0.32 0.32 0.31 0.30 0.27 0.24 0.20 0.19 0.20 0.25 0.36 0.57 0.91 1.45 1.35 1.21 1.14 0.92 0.71 0.59 0.54 0.57
0.17 0.12 0.10 0.11 0.12 0.11 0.11 0.12 0.16 0.18 0.16 0.15 0.16 0.16 0.16 0.16 0.15 0.18 0.21 0.23 0.25 0.30 0.29 0.24 0.22 0.22 0.24 0.21 0.22 0.25 0.34 0.53 0.82 1.19 1.69 1.83 1.87 1.53 1.01 0.76 0.68 0.66 0.66
0.23 0.16 0.11 0.12 0.12 0.13 0.14 0.15 0.18 0.18 0.18 0.18 0.19 0.21 0.22 0.20 0.20 0.23 0.27 0.29 0.29 0.30 0.29 0.26 0.24 0.23 0.25 0.23 0.24 0.32 0.45 0.70 0.93 1.30 1.82 2.02 1.74 1.52 1.15 0.94 0.84 0.78 0.71
0.30 0.23 0.16 0.16 0.17 0.20 0.22 0.25 0.27 0.27 0.26 0.28 0.30 0.30 0.28 0.27 0.28 0.28 0.31 0.35 0.33 0.34 0.32 0.31 0.31 0.29 0.27 0.24 0.26 0.34 0.49 0.74 1.00 1.77 1.93 1.90 1.74 1.50 1.34 1.15 0.97 0.85 0.76
0.36 0.29 0.26 0.22 0.25 0.31 0.33 0.35 0.39 0.37 0.34 0.34 0.38 0.38 0.33 0.29 0.28 0.30 0.32 0.34 0.37 0.42 0.41 0.35 0.30 0.27 0.25 0.25 0.25 0.33 0.49 0.61 0.84 1.42 1.75 1.71 1.43 1.33 1.41 1.22 1.08 0.94 0.83
0.55 0.43 0.37 0.31 0.32 0.41 0.48 0.45 0.44 0.42 0.39 0.39 0.43 0.46 0.41 0.35 0.31 0.32 0.37 0.39 0.41 0.41 0.37 0.32 0.28 0.26 0.26 0.26 0.29 0.34 0.47 0.64 0.86 1.23 1.39 1.52 1.27 1.29 1.50 1.40 1.15 0.99 0.91
0.83 0.69 0.60 0.54 0.50 0.53 0.54 0.52 0.48 0.45 0.45 0.45 0.45 0.45 0.44 0.38 0.36 0.39 0.41 0.44 0.41 0.40 0.40 0.41 0.40 0.39 0.37 0.34 0.35 0.39 0.49 0.58 0.74 1.06 1.67 1.66 1.32 1.56 1.67 1.48 1.29 1.16 1.00
0.94 1.05 0.98 0.81 0.72 0.73 0.66 0.58 0.60 0.54 0.51 0.48 0.46 0.45 0.45 0.51 0.60 0.60 0.52 0.54 0.53 0.55 0.57 0.57 0.55 0.55 0.51 0.48 0.50 0.53 0.53 0.51 0.81 1.37 1.95 1.79 1.57 1.79 1.83 1.63 1.46 1.37 1.23
1.12 1.24 1.28 1.23 1.08 0.99 0.93 0.95 0.94 0.84 0.73 0.61 0.68 0.66 0.65 0.91 1.00 0.87 0.92 0.87 0.83 0.80 0.74 0.75 0.74 0.68 0.63 0.59 0.65 0.66 0.56 0.63 1.09 1.74 1.81 1.42 1.65 2.00 2.09 1.90 1.70 1.61 1.55
1.48 1.27 1.19 1.32 1.35 1.42 1.52 1.33 1.31 1.30 1.23 1.09 1.20 1.13 1.15 1.33 1.23 1.22 1.33 1.20 1.07 1.01 0.97 1.06 0.95 0.76 0.72 0.78 0.86 0.81 0.76 0.84 1.14 1.64 1.76 1.63 1.82 2.14 2.31 2.19 1.94 1.84 1.84
1.80 1.61 1.40 1.35 1.36 1.54 1.72 1.61 1.54 1.50 1.47 1.40 1.44 1.29 1.47 1.65 1.75 1.76 1.87 1.68 1.60 1.53 1.55 1.51 1.41 1.18 1.06 1.02 1.02 1.06 1.09 1.05 1.24 1.55 1.66 1.50 1.66 2.06 2.46 2.47 2.23 2.09 2.04
2.18 2.03 1.84 1.61 1.54 1.67 1.89 1.95 1.86 1.83 1.78 1.88 2.00 1.79 1.79 1.82 1.93 2.22 2.21 2.33 2.00 1.99 2.05 1.96 1.75 1.66 1.52 1.36 1.27 1.27 1.32 1.25 1.34 1.53 1.51 1.51 1.65 1.97 2.36 2.53 2.51 2.50 2.42
2.71 2.36 2.14 2.04 1.85 1.80 1.90 2.10 2.19 2.06 2.11 2.21 2.34 2.23 2.24 2.30 2.43 2.78 2.86 2.77 2.50 2.50 2.68 2.69 2.46 2.24 2.02 1.91 1.69 1.66 1.67 1.67 1.77 1.80 1.74 1.69 1.60 1.67 2.09 2.47 2.74 2.93 2.88
2.86 2.75 2.57 2.48 2.40 2.18 2.14 2.35 2.49 2.41 2.34 2.35 2.53 2.64 2.65 2.72 3.02 3.13 3.36 3.26 3.03 2.95 2.94 2.89 3.04 3.01 2.58 2.28 2.11 2.07 2.10 2.06 2.10 2.13 2.15 2.12 1.89 1.77 1.88 2.17 2.44 2.64 2.74
3.05 2.84 2.80 2.54 2.46 2.60 2.61 2.84 2.83 2.89 3.02 2.94 2.95 3.16 3.20 3.26 3.36 3.40 3.40 3.39 3.26 3.22 3.44 3.48 3.39 3.34 3.14 2.83 2.60 2.36 2.26 2.33 2.17 2.13 2.12 2.20 2.25 1.94 1.76 1.75 1.90 2.08 2.37
2.56 2.66 2.80 2.75 2.65 2.66 2.83 3.18 3.34 3.48 3.69 3.88 3.93 4.14 4.05 3.86 3.80 3.81 3.76 3.85 3.69 3.70 3.66 3.50 3.75 3.66 3.49 3.17 2.69 2.45 2.24 2.27 2.17 1.92 1.93 2.03 2.11 2.00 1.90 1.72 1.77 1.92 2.22
2.49 2.68 2.84 2.98 3.12 3.04 3.08 3.29 3.71 3.93 4.09 4.48 4.55 4.56 4.63 4.63 4.51 4.46 4.33 4.32 4.21 4.10 3.96 3.87 3.85 3.63 3.47 3.21 2.66 2.42 2.18 1.95 1.90 1.88 1.72 1.76 1.82 1.71 1.78 1.79 1.87 1.77 1.95
2.71 2.88 2.86 3.02 3.31 3.54 3.93 3.92 4.10 4.54 4.89 5.05 5.17 5.13 5.05 4.96 4.92 4.76 4.60 4.63 4.46 4.26 4.04 3.90 3.81 3.70 3.38 3.18 3.05 2.67 2.15 1.84 1.71 1.61 1.62 1.62 1.55 1.58 1.77 1.77 1.77 1.73 1.69
2.73 2.98 3.12 3.21 3.61 4.10 4.65 5.18 5.57 5.91 5.92 6.04 6.00 5.86 5.55 5.35 5.21 5.00 4.96 4.82 4.57 4.38 4.14 3.94 3.82 3.70 3.40 3.27 3.23 3.14 2.50 2.02 1.58 1.27 1.35 1.41 1.39 1.44 1.49 1.48 1.47 1.52 1.56
2.74 3.01 3.19 3.48 4.06 4.87 5.39 5.87 6.44 6.76 6.49 6.23 5.94 5.85 5.74 5.66 5.54 5.35 5.27 4.98 4.73 4.44 4.10 3.83 3.65 3.54 3.42 3.34 3.21 3.28 2.83 2.26 1.80 1.43 1.23 1.18 1.25 1.38 1.40 1.40 1.35 1.31 1.39
2.83 2.96 3.15 3.70 4.40 5.05 5.60 6.22 6.82 7.10 7.16 6.96 6.38 5.89 5.46 5.17 4.93 4.80 4.75 4.56 4.34 4.03 3.79 3.53 3.39 3.28 3.37 3.21 3.11 2.95 2.74 2.45 2.17 1.80 1.44 1.26 1.24 1.27 1.32 1.33 1.31 1.33 1.36
2.51 2.98 3.30 3.86 4.52 5.16 5.88 6.61 7.04 7.29 7.31 6.94 6.13 5.35 4.82 4.49 4.20 3.95 3.88 3.77 3.61 3.40 3.20 3.11 3.08 2.99 2.95 2.83 2.72 2.67 2.65 2.60 2.32 2.01 1.68 1.41 1.32 1.29 1.31 1.34 1.44 1.45 1.45
2.39 2.78 3.26 3.57 4.16 4.84 5.44 6.00 6.19 6.35 6.30 5.90 5.46 4.98 4.56 4.02 3.53 3.16 3.01 2.91 2.78 2.67 2.65 2.64 2.64 2.59 2.57 2.54 2.49 2.39 2.31 2.33 2.21 2.10 1.82 1.58 1.53 1.42 1.35 1.32 1.32 1.38 1.45

GEFSSE_prec_meanprecacc_216.txt.gz
Total_Precipitation_Accumulation
0.16 0.18 0.21 0.16 0.16 0.16 0.16 0.16 0.17 0.17 0.14 0.14 0.17 0.20 0.18 0.13 0.11 0.10 0.10 0.12 0.16 0.23 0.25 0.26 0.30 0.33 0.34 0.32 0.29 0.24 0.22 0.21 0.23 0.28 0.35 0.45 0.54 0.58 0.61 0.60 0.72 0.77 0.59
0.15 0.14 0.19 0.17 0.14 0.15 0.16 0.16 0.16 0.15 0.13 0.13 0.14 0.16 0.16 0.15 0.13 0.12 0.12 0.13 0.17 0.22 0.24 0.23 0.25 0.28 0.27 0.22 0.21 0.21 0.20 0.22 0.29 0.42 0.56 0.55 0.65 0.67 0.71 0.68 0.89 1.15 0.71
0.14 0.12 0.14 0.20 0.17 0.14 0.15 0.16 0.16 0.14 0.14 0.14 0.14 0.15 0.15 0.16 0.16 0.16 0.16 0.18 0.23 0.28 0.27 0.26 0.27 0.29 0.27 0.23 0.22 0.21 0.23 0.30 0.44 0.70 1.06 1.00 0.91 0.83 0.78 0.69 0.71 0.79 0.69
0.14 0.11 0.10 0.15 0.19 0.15 0.14 0.16 0.17 0.17 0.15 0.14 0.15 0.15 0.15 0.16 0.17 0.18 0.18 0.21 0.27 0.32 0.33 0.32 0.31 0.28 0.27 0.23 0.23 0.25 0.30 0.40 0.62 0.97 1.50 1.39 1.24 1.19 1.00 0.81 0.70 0.68 0.68
0.17 0.13 0.11 0.13 0.15 0.16 0.15 0.15 0.18 0.19 0.17 0.16 0.16 0.16 0.17 0.17 0.16 0.19 0.23 0.24 0.26 0.31 0.30 0.25 0.23 0.23 0.25 0.23 0.25 0.29 0.39 0.58 0.88 1.25 1.73 1.86 1.90 1.57 1.07 0.83 0.78 0.80 0.77
0.24 0.17 0.13 0.13 0.14 0.17 0.20 0.19 0.20 0.20 0.19 0.19 0.20 0.22 0.22 0.21 0.21 0.24 0.30 0.32 0.32 0.33 0.30 0.27 0.26 0.25 0.27 0.24 0.28 0.36 0.49 0.75 0.99 1.35 1.86 2.05 1.77 1.56 1.20 1.00 0.91 0.89 0.81
0.31 0.24 0.17 0.17 0.19 0.23 0.29 0.29 0.30 0.29 0.27 0.29 0.31 0.31 0.29 0.28 0.29 0.30 0.34 0.38 0.37 0.37 0.35 0.33 0.33 0.32 0.29 0.26 0.29 0.38 0.53 0.78 1.04 1.82 1.98 1.94 1.78 1.55 1.40 1.22 1.05 0.95 0.86
0.37 0.31 0.28 0.24 0.27 0.35 0.40 0.39 0.41 0.38 0.35 0.36 0.39 0.39 0.34 0.31 0.30 0.32 0.35 0.38 0.41 0.45 0.43 0.37 0.32 0.30 0.28 0.28 0.28 0.36 0.53 0.65 0.86 1.45 1.80 1.75 1.47 1.38 1.49 1.31 1.16 1.03 0.94
0.55 0.44 0.40 0.35 0.35 0.44 0.55 0.49 0.47 0.44 0.41 0.41 0.45 0.47 0.43 0.37 0.32 0.34 0.41 0.43 0.45 0.45 0.40 0.35 0.31 0.29 0.29 0.30 0.31 0.37 0.50 0.67 0.88 1.24 1.42 1.56 1.32 1.35 1.57 1.47 1.24 1.09 1.02
0.84 0.70 0.62 0.59 0.56 0.56 0.59 0.56 0.52 0.48 0.47 0.47 0.47 0.47 0.47 0.40 0.38 0.41 0.44 0.48 0.44 0.46 0.46 0.44 0.43 0.43 0.41 0.38 0.39 0.43 0.53 0.61 0.76 1.08 1.69 1.69 1.36 1.62 1.74 1.55 1.37 1.26 1.11
0.95 1.07 1.00 0.86 0.80 0.78 0.69 0.61 0.63 0.57 0.53 0.50 0.48 0.47 0.48 0.53 0.62 0.62 0.54 0.56 0.56 0.60 0.64 0.62 0.60 0.59 0.56 0.52 0.55 0.59 0.58 0.55 0.84 1.39 1.96 1.81 1.60 1.84 1.90 1.72 1.55 1.47 1.32
1.15 1.27 1.30 1.26 1.16 1.06 0.97 0.99 0.98 0.87 0.75 0.63 0.70 0.67 0.67 0.93 1.03 0.90 0.95 0.89 0.86 0.84 0.82 0.81 0.79 0.72 0.67 0.61 0.67 0.71 0.61 0.67 1.13 1.76 1.82 1.45 1.69 2.04 2.16 1.99 1.80 1.73 1.65
1.50 1.31 1.24 1.37 1.42 1.50 1.58 1.38 1.36 1.36 1.27 1.11 1.23 1.16 1.17 1.34 1.26 1.26 1.36 1.23 1.11 1.05 1.02 1.12 1.00 0.79 0.74 0.80 0.87 0.84 0.79 0.86 1.16 1.66 1.77 1.64 1.86 2.20 2.38 2.28 2.04 1.95 1.95
1.83 1.65 1.44 1.40 1.43 1.61 1.80 1.68 1.62 1.59 1.55 1.46 1.49 1.34 1.52 1.69 1.78 1.80 1.91 1.73 1.65 1.58 1.59 1.56 1.46 1.22 1.08 1.05 1.04 1.08 1.11 1.07 1.25 1.57 1.67 1.51 1.69 2.11 2.52 2.56 2.31 2.18 2.13
2.23 2.07 1.87 1.66 1.60 1.74 1.97 2.03 1.94 1.93 1.88 1.97 2.08 1.86 1.86 1.88 1.99 2.29 2.29 2.42 2.08 2.06 2.12 2.04 1.82 1.72 1.56 1.39 1.30 1.30 1.34 1.27 1.35 1.54 1.53 1.53 1.68 2.01 2.42 2.61 2.59 2.58 2.50
2.77 2.42 2.18 2.07 1.90 1.87 1.96 2.17 2.27 2.14 2.19 2.29 2.43 2.32 2.32 2.38 2.51 2.85 2.94 2.87 2.59 2.59 2.76 2.78 2.55 2.30 2.07 1.95 1.72 1.68 1.69 1.69 1.78 1.82 1.75 1.71 1.63 1.71 2.14 2.54 2.82 3.01 2.97
2.91 2.80 2.62 2.53 2.46 2.25 2.21 2.42 2.57 2.48 2.40 2.41 2.59 2.70 2.70 2.78 3.09 3.21 3.46 3.37 3.13 3.06 3.07 3.01 3.15 3.11 2.66 2.34 2.15 2.09 2.12 2.08 2.12 2.15 2.17 2.14 1.91 1.79 1.92 2.22 2.51 2.72 2.83
3.10 2.88 2.85 2.58 2.52 2.67 2.69 2.93 2.93 2.98 3.09 3.01 3.01 3.22 3.27 3.33 3.44 3.47 3.47 3.47 3.36 3.30 3.54 3.61 3.53 3.45 3.22 2.88 2.64 2.39 2.28 2.34 2.20 2.16 2.15 2.22 2.26 1.95 1.77 1.78 1.94 2.14 2.43
2.61 2.70 2.85 2.80 2.71 2.73 2.93 3.29 3.44 3.58 3.78 3.97 4.00 4.19 4.12 3.94 3.89 3.92 3.86 3.91 3.76 3.77 3.72 3.58 3.86 3.76 3.57 3.22 2.73 2.48 2.26 2.28 2.18 1.93 1.94 2.05 2.12 2.01 1.91 1.75 1.80 1.95 2.27
2.53 2.72 2.89 3.03 3.16 3.10 3.16 3.38 3.81 4.00 4.17 4.56 4.63 4.63 4.71 4.73 4.61 4.56 4.47 4.45 4.30 4.18 4.02 3.93 3.92 3.70 3.54 3.27 2.71 2.45 2.21 1.97 1.92 1.90 1.73 1.77 1.83 1.73 1.81 1.81 1.89 1.79 1.99
2.73 2.91 2.89 3.04 3.35 3.59 3.97 3.96 4.16 4.59 4.96 5.11 5.23 5.20 5.12 5.04 5.03 4.85 4.67 4.73 4.57 4.35 4.11 3.96 3.88 3.77 3.44 3.25 3.13 2.73 2.20 1.87 1.74 1.63 1.64 1.64 1.57 1.60 1.79 1.79 1.79 1.76 1.72
2.75 3.00 3.13 3.24 3.63 4.13 4.69 5.21 5.60 5.95 5.96 6.09 6.05 5.92 5.62 5.44 5.30 5.11 5.05 4.88 4.64 4.46 4.21 4.00 3.89 3.78 3.46 3.34 3.31 3.20 2.54 2.05 1.60 1.29 1.37 1.44 1.42 1.47 1.53 1.50 1.49 1.54 1.58
2.75 3.02 3.20 3.49 4.08 4.90 5.42 5.89 6.46 6.79 6.52 6.26 5.97 5.89 5.79 5.72 5.60 5.41 5.33 5.05 4.81 4.52 4.18 3.91 3.73 3.62 3.50 3.41 3.28 3.34 2.87 2.29 1.82 1.45 1.25 1.21 1.28 1.41 1.43 1.43 1.38 1.34 1.42
2.83 2.97 3.16 3.71 4.41 5.07 5.62 6.24 6.84 7.14 7.19 6.99 6.42 5.93 5.50 5.21 4.99 4.85 4.79 4.60 4.40 4.11 3.87 3.60 3.46 3.36 3.45 3.29 3.18 3.01 2.79 2.47 2.20 1.84 1.49 1.31 1.28 1.30 1.34 1.35 1.34 1.35 1.38
2.52 2.99 3.31 3.86 4.52 5.17 5.90 6.63 7.07 7.31 7.33 6.97 6.17 5.38 4.85 4.53 4.24 4.01 3.92 3.82 3.66 3.46 3.29 3.20 3.17 3.08 3.03 2.90 2.78 2.73 2.70 2.64 2.35 2.03 1.71 1.45 1.37 1.32 1.33 1.36 1.45 1.46 1.47
2.39 2.79 3.27 3.58 4.17 4.85 5.45 6.02 6.20 6.36 6.31 5.91 5.47 4.99 4.59 4.06 3.58 3.23 3.06 2.96 2.82 2.71 2.71 2.72 2.74 2.68 2.65 2.61 2.55 2.45 2.37 2.37 2.23 2.12 1.84 1.60 1.57 1.46 1.38 1.36 1.35 1.40 1.47

GEFSSE_prec_meanprecacc_222.txt.gz
Total_Precipitation_Accumulation
0.17 0.19 0.22 0.17 0.17 0.17 0.18 0.20 0.27 0.29 0.19 0.16 0.18 0.21 0.20 0.14 0.13 0.12 0.11 0.13 0.17 0.24 0.27 0.28 0.31 0.35 0.36 0.35 0.33 0.28 0.26 0.27 0.29 0.31 0.38 0.47 0.57 0.60 0.65 0.66 0.77 0.81 0.62
0.16 0.16 0.20 0.18 0.15 0.17 0.18 0.19 0.25 0.30 0.20 0.16 0.16 0.18 0.18 0.16 0.14 0.14 0.13 0.14 0.18 0.23 0.25 0.24 0.26 0.29 0.28 0.24 0.24 0.25 0.24 0.29 0.36 0.48 0.60 0.59 0.68 0.70 0.76 0.74 0.95 1.21 0.75
0.15 0.13 0.15 0.22 0.18 0.16 0.17 0.18 0.22 0.27 0.21 0.17 0.16 0.16 0.17 0.17 0.17 0.17 0.17 0.19 0.25 0.30 0.29 0.28 0.29 0.31 0.28 0.24 0.24 0.25 0.27 0.37 0.51 0.77 1.12 1.05 0.95 0.88 0.83 0.74 0.78 0.85 0.74
0.15 0.12 0.11 0.16 0.20 0.17 0.16 0.18 0.23 0.29 0.21 0.19 0.18 0.17 0.17 0.17 0.18 0.19 0.20 0.23 0.30 0.35 0.35 0.34 0.32 0.30 0.28 0.25 0.28 0.29 0.34 0.45 0.71 1.05 1.55 1.43 1.28 1.24 1.06 0.88 0.81 0.79 0.75
0.18 0.14 0.13 0.14 0.17 0.17 0.18 0.18 0.27 0.31 0.23 0.20 0.19 0.18 0.18 0.18 0.17 0.20 0.24 0.26 0.29 0.34 0.33 0.28 0.25 0.25 0.29 0.27 0.30 0.33 0.42 0.63 0.95 1.31 1.78 1.90 1.94 1.63 1.13 0.90 0.88 0.92 0.88
0.24 0.18 0.14 0.15 0.17 0.19 0.22 0.23 0.32 0.28 0.24 0.23 0.22 0.24 0.24 0.23 0.22 0.26 0.31 0.35 0.35 0.37 0.35 0.32 0.30 0.29 0.32 0.28 0.32 0.40 0.52 0.81 1.04 1.40 1.91 2.09 1.80 1.60 1.25 1.04 0.97 0.96 0.87
0.31 0.25 0.18 0.19 0.21 0.26 0.32 0.34 0.43 0.35 0.31 0.32 0.33 0.33 0.30 0.29 0.30 0.32 0.37 0.41 0.40 0.41 0.40 0.39 0.40 0.38 0.35 0.30 0.32 0.41 0.58 0.84 1.08 1.86 2.03 1.98 1.81 1.58 1.43 1.27 1.10 1.00 0.90
0.37 0.31 0.29 0.26 0.30 0.38 0.45 0.46 0.53 0.44 0.40 0.39 0.42 0.41 0.36 0.32 0.32 0.34 0.38 0.42 0.46 0.49 0.48 0.42 0.38 0.36 0.34 0.33 0.31 0.38 0.56 0.68 0.89 1.47 1.82 1.77 1.50 1.42 1.53 1.35 1.21 1.07 0.98
0.55 0.45 0.41 0.37 0.39 0.48 0.59 0.57 0.57 0.49 0.46 0.44 0.49 0.51 0.46 0.39 0.35 0.37 0.43 0.47 0.49 0.49 0.44 0.40 0.36 0.35 0.36 0.36 0.36 0.40 0.53 0.70 0.90 1.27 1.43 1.58 1.34 1.39 1.62 1.52 1.28 1.13 1.07
0.85 0.71 0.63 0.61 0.59 0.60 0.64 0.65 0.60 0.53 0.52 0.50 0.50 0.51 0.50 0.43 0.41 0.44 0.46 0.51 0.48 0.51 0.51 0.49 0.48 0.47 0.47 0.45 0.45 0.46 0.56 0.66 0.79 1.11 1.72 1.71 1.37 1.66 1.81 1.61 1.43 1.31 1.16
0.96 1.08 1.01 0.87 0.84 0.82 0.75 0.69 0.71 0.63 0.59 0.55 0.53 0.51 0.51 0.57 0.66 0.66 0.57 0.60 0.59 0.65 0.75 0.71 0.66 0.64 0.60 0.58 0.62 0.65 0.63 0.59 0.89 1.43 1.99 1.82 1.61 1.88 1.96 1.78 1.61 1.53 1.38
1.17 1.29 1.31 1.27 1.20 1.12 1.02 1.06 1.07 0.94 0.82 0.69 0.76 0.74 0.73 0.99 1.09 0.96 1.00 0.94 0.90 0.88 0.93 0.95 0.87 0.78 0.72 0.66 0.73 0.77 0.65 0.70 1.17 1.80 1.85 1.46 1.71 2.08 2.21 2.05 1.86 1.78 1.71
1.52 1.33 1.25 1.39 1.46 1.58 1.64 1.47 1.46 1.44 1.35 1.19 1.30 1.25 1.27 1.44 1.35 1.35 1.44 1.31 1.17 1.11 1.10 1.27 1.13 0.86 0.79 0.84 0.92 0.88 0.82 0.88 1.18 1.68 1.79 1.66 1.88 2.24 2.43 2.33 2.09 2.01 2.01
1.85 1.67 1.45 1.42 1.47 1.68 1.86 1.76 1.72 1.70 1.67 1.57 1.59 1.43 1.62 1.80 1.89 1.91 1.99 1.80 1.71 1.64 1.66 1.66 1.57 1.31 1.14 1.09 1.08 1.10 1.13 1.09 1.27 1.58 1.68 1.52 1.70 2.14 2.57 2.60 2.35 2.23 2.19
2.24 2.08 1.89 1.68 1.65 1.81 2.03 2.11 2.03 2.01 1.98 2.08 2.18 1.95 1.96 1.98 2.08 2.37 2.37 2.49 2.16 2.15 2.20 2.12 1.92 1.81 1.63 1.44 1.34 1.33 1.37 1.29 1.36 1.55 1.54 1.55 1.70 2.04 2.46 2.66 2.63 2.63 2.56
2.79 2.45 2.22 2.11 1.95 1.93 2.01 2.22 2.33 2.20 2.26 2.36 2.49 2.37 2.38 2.46 2.58 2.91 2.99 2.94 2.67 2.69 2.85 2.88 2.68 2.41 2.16 2.02 1.77 1.73 1.71 1.70 1.80 1.83 1.76 1.73 1.65 1.74 2.17 2.58 2.87 3.05 3.02
2.95 2.86 2.69 2.59 2.52 2.30 2.25 2.46 2.62 2.53 2.47 2.47 2.65 2.76 2.76 2.84 3.14 3.25 3.50 3.42 3.19 3.15 3.17 3.12 3.29 3.24 2.76 2.42 2.21 2.13 2.15 2.09 2.13 2.16 2.19 2.15 1.92 1.81 1.94 2.24 2.54 2.76 2.87
3.14 2.93 2.89 2.62 2.57 2.72 2.72 2.96 2.97 3.03 3.15 3.08 3.07 3.27 3.31 3.37 3.48 3.52 3.51 3.53 3.42 3.36 3.61 3.70 3.63 3.56 3.32 2.98 2.72 2.45 2.33 2.37 2.21 2.17 2.16 2.23 2.28 1.97 1.79 1.80 1.97 2.17 2.47
2.64 2.74 2.89 2.84 2.75 2.77 2.96 3.31 3.48 3.63 3.83 4.02 4.05 4.22 4.15 3.97 3.92 3.96 3.92 3.98 3.83 3.84 3.79 3.65 3.94 3.83 3.65 3.31 2.82 2.56 2.32 2.33 2.22 1.96 1.96 2.06 2.14 2.03 1.94 1.76 1.82 1.98 2.29
2.55 2.74 2.92 3.05 3.19 3.14 3.18 3.40 3.84 4.04 4.21 4.60 4.66 4.66 4.73 4.76 4.64 4.60 4.53 4.52 4.37 4.24 4.09 4.01 4.00 3.76 3.61 3.34 2.79 2.53 2.27 2.02 1.98 1.95 1.76 1.79 1.85 1.74 1.83 1.84 1.91 1.80 2.01
2.75 2.93 2.90 3.06 3.36 3.60 3.98 3.97 4.18 4.62 4.98 5.13 5.25 5.22 5.14 5.06 5.05 4.89 4.71 4.79 4.64 4.42 4.18 4.03 3.97 3.84 3.51 3.33 3.22 2.82 2.27 1.93 1.79 1.67 1.68 1.67 1.59 1.61 1.81 1.82 1.82 1.77 1.73
2.76 3.02 3.15 3.25 3.64 4.14 4.70 5.22 5.62 5.97 5.98 6.10 6.06 5.94 5.64 5.45 5.33 5.14 5.09 4.93 4.71 4.54 4.30 4.09 3.99 3.86 3.52 3.41 3.39 3.29 2.62 2.12 1.65 1.31 1.40 1.46 1.44 1.50 1.55 1.52 1.51 1.56 1.61
2.76 3.03 3.21 3.50 4.09 4.91 5.43 5.90 6.47 6.80 6.53 6.27 5.99 5.91 5.81 5.74 5.61 5.43 5.37 5.10 4.87 4.59 4.25 3.98 3.82 3.71 3.57 3.49 3.36 3.43 2.95 2.35 1.86 1.48 1.28 1.24 1.30 1.43 1.45 1.46 1.40 1.36 1.44
2.84 2.97 3.17 3.71 4.42 5.08 5.63 6.25 6.85 7.15 7.21 7.01 6.45 5.95 5.52 5.23 5.00 4.87 4.81 4.64 4.44 4.16 3.92 3.65 3.52 3.44 3.53 3.36 3.26 3.08 2.85 2.52 2.25 1.88 1.52 1.34 1.30 1.33 1.37 1.37 1.35 1.37 1.39
2.53 3.00 3.32 3.87 4.53 5.18 5.91 6.64 7.08 7.33 7.34 6.98 6.19 5.42 4.89 4.55 4.26 4.03 3.95 3.85 3.68 3.49 3.31 3.23 3.21 3.14 3.11 2.97 2.84 2.78 2.75 2.69 2.40 2.09 1.75 1.49 1.41 1.36 1.36 1.38 1.47 1.48 1.48
2.40 2.80 3.28 3.60 4.19 4.86 5.46 6.03 6.22 6.38 6.33 5.92 5.50 5.02 4.61 4.08 3.60 3.25 3.10 3.00 2.86 2.75 2.73 2.75 2.77 2.72 2.70 2.67 2.61 2.49 2.41 2.41 2.27 2.17 1.89 1.65 1.63 1.52 1.43 1.39 1.37 1.42 1.48

GEFSSE_prec_meanprecacc_228.txt.gz
Total_Precipitation_Accumulation
0.17 0.19 0.22 0.17 0.17 0.18 0.19 0.23 0.30 0.36 0.25 0.21 0.22 0.24 0.22 0.16 0.14 0.13 0.12 0.13 0.18 0.25 0.29 0.31 0.34 0.37 0.39 0.39 0.37 0.33 0.30 0.30 0.31 0.34 0.41 0.50 0.59 0.64 0.69 0.69 0.83 0.91 0.70
0.17 0.16 0.20 0.18 0.15 0.17 0.20 0.22 0.28 0.35 0.26 0.22 0.21 0.20 0.20 0.17 0.15 0.14 0.13 0.15 0.19 0.25 0.27 0.27 0.30 0.32 0.31 0.27 0.27 0.29 0.28 0.32 0.38 0.50 0.63 0.62 0.71 0.74 0.81 0.78 1.01 1.31 0.83
0.16 0.15 0.15 0.22 0.19 0.17 0.19 0.20 0.25 0.32 0.28 0.26 0.21 0.19 0.20 0.19 0.18 0.18 0.18 0.20 0.26 0.32 0.32 0.31 0.33 0.35 0.32 0.28 0.29 0.29 0.31 0.40 0.53 0.80 1.16 1.09 1.01 0.94 0.89 0.82 0.84 0.90 0.80
0.15 0.14 0.13 0.17 0.21 0.18 0.18 0.20 0.26 0.32 0.28 0.29 0.24 0.20 0.21 0.20 0.20 0.21 0.22 0.24 0.31 0.38 0.38 0.37 0.37 0.35 0.34 0.31 0.34 0.36 0.40 0.49 0.74 1.09 1.59 1.48 1.36 1.32 1.13 0.96 0.87 0.85 0.80
0.19 0.16 0.15 0.16 0.19 0.19 0.20 0.21 0.30 0.34 0.29 0.30 0.25 0.22 0.22 0.21 0.20 0.23 0.26 0.28 0.31 0.37 0.36 0.32 0.29 0.30 0.35 0.33 0.36 0.40 0.48 0.69 1.00 1.35 1.82 1.97 2.03 1.70 1.21 0.97 0.96 1.00 0.95
0.25 0.19 0.14 0.16 0.17 0.20 0.24 0.26 0.36 0.33 0.30 0.32 0.28 0.27 0.26 0.26 0.26 0.28 0.34 0.37 0.37 0.40 0.39 0.36 0.34 0.34 0.38 0.35 0.39 0.45 0.57 0.86 1.10 1.44 1.97 2.17 1.91 1.67 1.31 1.12 1.07 1.05 0.94
0.32 0.25 0.19 0.19 0.21 0.27 0.35 0.37 0.47 0.40 0.39 0.40 0.40 0.37 0.33 0.32 0.34 0.35 0.40 0.44 0.42 0.43 0.43 0.42 0.44 0.42 0.40 0.37 0.39 0.46 0.62 0.88 1.14 1.92 2.08 2.04 1.93 1.74 1.52 1.31 1.14 1.04 0.96
0.37 0.31 0.29 0.26 0.31 0.40 0.48 0.49 0.58 0.49 0.48 0.47 0.48 0.46 0.41 0.37 0.36 0.38 0.41 0.45 0.48 0.52 0.50 0.45 0.41 0.39 0.38 0.40 0.39 0.44 0.60 0.71 0.92 1.54 1.86 1.83 1.59 1.54 1.64 1.41 1.26 1.12 1.02
0.56 0.45 0.41 0.37 0.39 0.49 0.61 0.60 0.62 0.54 0.53 0.53 0.56 0.57 0.51 0.44 0.40 0.40 0.47 0.50 0.52 0.52 0.47 0.43 0.41 0.39 0.40 0.42 0.45 0.47 0.58 0.73 0.92 1.29 1.46 1.61 1.39 1.43 1.67 1.56 1.32 1.17 1.10
0.87 0.72 0.63 0.61 0.60 0.62 0.67 0.70 0.66 0.59 0.59 0.60 0.61 0.58 0.55 0.48 0.45 0.49 0.50 0.55 0.52 0.54 0.55 0.54 0.52 0.51 0.51 0.50 0.53 0.58 0.63 0.70 0.80 1.13 1.75 1.73 1.40 1.69 1.84 1.64 1.46 1.34 1.18
0.99 1.09 1.02 0.89 0.85 0.84 0.78 0.75 0.78 0.69 0.65 0.67 0.68 0.61 0.58 0.62 0.72 0.71 0.61 0.64 0.63 0.69 0.80 0.76 0.70 0.69 0.66 0.65 0.69 0.76 0.75 0.64 0.90 1.46 2.04 1.85 1.64 1.91 1.99 1.81 1.64 1.57 1.41
1.21 1.32 1.34 1.30 1.23 1.15 1.05 1.14 1.16 1.01 0.90 0.83 0.91 0.83 0.82 1.08 1.15 1.01 1.06 0.99 0.95 0.93 0.97 1.00 0.92 0.83 0.80 0.74 0.81 0.87 0.74 0.74 1.19 1.83 1.90 1.49 1.73 2.11 2.24 2.08 1.91 1.82 1.73
1.54 1.35 1.27 1.41 1.52 1.61 1.68 1.54 1.53 1.51 1.45 1.33 1.43 1.33 1.37 1.55 1.44 1.46 1.54 1.40 1.25 1.17 1.16 1.32 1.19 0.92 0.85 0.91 0.99 0.97 0.90 0.92 1.22 1.73 1.86 1.70 1.90 2.26 2.46 2.36 2.13 2.04 2.04
1.86 1.68 1.46 1.43 1.52 1.73 1.90 1.81 1.78 1.76 1.74 1.66 1.67 1.50 1.70 1.87 1.96 1.99 2.08 1.87 1.78 1.71 1.73 1.72 1.63 1.37 1.20 1.16 1.14 1.17 1.20 1.15 1.32 1.64 1.78 1.58 1.72 2.16 2.60 2.64 2.39 2.27 2.23
2.25 2.09 1.90 1.70 1.68 1.85 2.07 2.15 2.08 2.09 2.05 2.15 2.25 2.02 2.04 2.05 2.14 2.44 2.44 2.57 2.23 2.22 2.28 2.20 1.98 1.87 1.70 1.52 1.43 1.39 1.42 1.35 1.42 1.61 1.64 1.61 1.73 2.06 2.48 2.69 2.66 2.67 2.61
2.81 2.47 2.24 2.13 1.97 1.97 2.05 2.26 2.39 2.26 2.33 2.43 2.56 2.44 2.45 2.53 2.64 2.97 3.05 3.00 2.74 2.76 2.93 2.96 2.75 2.49 2.24 2.09 1.86 1.81 1.76 1.74 1.83 1.88 1.86 1.79 1.68 1.75 2.19 2.60 2.89 3.07 3.04
2.99 2.88 2.71 2.60 2.55 2.34 2.29 2.50 2.66 2.59 2.52 2.52 2.70 2.82 2.79 2.87 3.19 3.31 3.56 3.48 3.25 3.22 3.25 3.21 3.38 3.34 2.84 2.49 2.29 2.21 2.20 2.13 2.17 2.21 2.28 2.20 1.94 1.83 1.96 2.26 2.56 2.77 2.89
3.18 2.96 2.91 2.64 2.60 2.76 2.76 3.01 3.01 3.07 3.19 3.11 3.11 3.30 3.33 3.39 3.52 3.57 3.57 3.59 3.49 3.44 3.70 3.80 3.74 3.66 3.42 3.05 2.80 2.52 2.39 2.43 2.25 2.21 2.24 2.27 2.30 1.99 1.81 1.81 1.98 2.18 2.49
2.67 2.77 2.92 2.87 2.79 2.82 3.00 3.35 3.51 3.67 3.86 4.06 4.08 4.24 4.18 4.01 3.95 4.01 3.98 4.05 3.90 3.93 3.87 3.73 4.04 3.95 3.78 3.43 2.94 2.64 2.38 2.39 2.29 2.01 2.02 2.10 2.16 2.05 1.96 1.78 1.83 1.99 2.31
2.59 2.78 2.95 3.10 3.26 3.20 3.22 3.44 3.88 4.09 4.25 4.63 4.69 4.69 4.76 4.79 4.68 4.65 4.58 4.58 4.44 4.32 4.17 4.10 4.12 3.87 3.71 3.46 2.91 2.65 2.37 2.09 2.05 2.02 1.83 1.86 1.89 1.77 1.86 1.87 1.94 1.82 2.02
2.77 2.95 2.93 3.09 3.41 3.66 4.03 4.01 4.23 4.67 5.03 5.17 5.28 5.25 5.17 5.09 5.09 4.94 4.76 4.85 4.69 4.48 4.24 4.11 4.07 3.94 3.58 3.42 3.35 2.97 2.42 2.04 1.89 1.77 1.77 1.75 1.64 1.65 1.85 1.87 1.87 1.81 1.75
2.78 3.04 3.18 3.28 3.68 4.18 4.73 5.26 5.66 6.01 6.01 6.13 6.08 5.97 5.67 5.48 5.35 5.17 5.13 4.97 4.75 4.59 4.36 4.16 4.08 3.96 3.62 3.52 3.51 3.44 2.78 2.26 1.77 1.41 1.50 1.54 1.49 1.54 1.59 1.56 1.55 1.61 1.65
2.78 3.05 3.23 3.53 4.12 4.94 5.46 5.93 6.51 6.84 6.56 6.30 6.01 5.94 5.84 5.76 5.63 5.46 5.39 5.13 4.90 4.63 4.30 4.04 3.90 3.78 3.65 3.60 3.47 3.56 3.08 2.47 1.98 1.58 1.38 1.31 1.36 1.49 1.49 1.50 1.44 1.39 1.47
2.85 2.98 3.18 3.74 4.45 5.12 5.66 6.28 6.89 7.19 7.25 7.05 6.49 6.00 5.57 5.27 5.03 4.90 4.85 4.67 4.48 4.20 3.97 3.70 3.59 3.51 3.62 3.46 3.38 3.21 2.96 2.61 2.35 1.98 1.63 1.44 1.39 1.39 1.41 1.39 1.38 1.40 1.42
2.54 3.01 3.33 3.89 4.56 5.21 5.94 6.68 7.14 7.37 7.39 7.01 6.23 5.47 4.93 4.59 4.29 4.06 4.00 3.89 3.73 3.55 3.37 3.29 3.27 3.22 3.19 3.05 2.91 2.86 2.85 2.79 2.50 2.18 1.85 1.60 1.51 1.44 1.41 1.42 1.50 1.51 1.51
2.42 2.82 3.30 3.62 4.21 4.89 5.50 6.07 6.26 6.42 6.37 5.97 5.56 5.07 4.64 4.11 3.64 3.29 3.14 3.05 2.91 2.80 2.79 2.81 2.84 2.80 2.79 2.76 2.68 2.57 2.50 2.49 2.35 2.25 1.97 1.75 1.73 1.61 1.49 1.44 1.40 1.45 1.52

GEFSSE_prec_meanprecacc_234.txt.gz
Total_Precipitation_Accumulation
0.21 0.20 0.23 0.17 0.17 0.18 0.19 0.23 0.30 0.36 0.25 0.21 0.22 0.25 0.23 0.17 0.16 0.15 0.13 0.14 0.18 0.26 0.30 0.33 0.37 0.41 0.44 0.45 0.43 0.38 0.36 0.37 0.39 0.42 0.49 0.57 0.69 0.75 0.80 0.78 0.89 0.95 0.74
0.19 0.17 0.21 0.19 0.16 0.18 0.20 0.22 0.28 0.36 0.27 0.24 0.22 0.21 0.21 0.19 0.17 0.16 0.15 0.16 0.20 0.26 0.28 0.29 0.32 0.35 0.35 0.32 0.32 0.35 0.35 0.38 0.45 0.59 0.72 0.71 0.80 0.84 0.91 0.86 1.06 1.36 0.88
0.18 0.16 0.16 0.24 0.19 0.17 0.19 0.21 0.26 0.33 0.30 0.29 0.23 0.21 0.21 0.21 0.20 0.20 0.19 0.21 0.27 0.33 0.33 0.33 0.35 0.37 0.36 0.33 0.34 0.36 0.41 0.46 0.59 0.88 1.25 1.18 1.11 1.04 0.99 0.93 0.91 0.95 0.84
0.17 0.16 0.13 0.18 0.23 0.19 0.19 0.21 0.27 0.34 0.30 0.32 0.26 0.22 0.22 0.22 0.23 0.24 0.23 0.25 0.33 0.39 0.40 0.39 0.39 0.38 0.38 0.35 0.39 0.42 0.49 0.57 0.81 1.16 1.65 1.55 1.45 1.46 1.30 1.12 0.96 0.91 0.84
0.23 0.18 0.16 0.17 0.20 0.20 0.21 0.22 0.31 0.37 0.32 0.34 0.28 0.24 0.24 0.23 0.23 0.25 0.29 0.30 0.33 0.39 0.38 0.34 0.32 0.33 0.38 0.37 0.41 0.45 0.56 0.77 1.07 1.43 1.89 2.08 2.14 1.80 1.32 1.09 1.06 1.08 1.00
0.31 0.22 0.16 0.17 0.18 0.21 0.25 0.27 0.38 0.36 0.36 0.37 0.31 0.31 0.30 0.29 0.28 0.31 0.37 0.40 0.40 0.42 0.41 0.39 0.37 0.37 0.41 0.39 0.43 0.50 0.62 0.93 1.16 1.51 2.04 2.29 2.01 1.73 1.37 1.19 1.15 1.11 0.99
0.37 0.27 0.19 0.20 0.22 0.28 0.35 0.38 0.48 0.44 0.44 0.45 0.44 0.41 0.37 0.37 0.38 0.39 0.43 0.46 0.45 0.44 0.44 0.45 0.46 0.44 0.43 0.40 0.43 0.50 0.66 0.94 1.19 1.97 2.14 2.13 2.00 1.80 1.58 1.36 1.20 1.10 1.01
0.41 0.32 0.30 0.27 0.32 0.41 0.49 0.50 0.60 0.53 0.53 0.53 0.55 0.52 0.45 0.42 0.40 0.41 0.44 0.47 0.51 0.55 0.52 0.47 0.43 0.42 0.41 0.44 0.42 0.47 0.65 0.77 0.97 1.61 1.92 1.88 1.66 1.62 1.70 1.45 1.29 1.17 1.07
0.58 0.46 0.42 0.38 0.40 0.51 0.63 0.63 0.65 0.58 0.58 0.61 0.65 0.64 0.56 0.50 0.44 0.44 0.51 0.53 0.55 0.55 0.49 0.45 0.42 0.42 0.44 0.46 0.49 0.50 0.62 0.78 0.96 1.38 1.53 1.68 1.44 1.51 1.73 1.60 1.35 1.21 1.15
0.91 0.74 0.65 0.62 0.61 0.63 0.69 0.73 0.69 0.63 0.66 0.70 0.71 0.65 0.61 0.53 0.50 0.53 0.53 0.58 0.54 0.57 0.58 0.56 0.55 0.54 0.54 0.54 0.57 0.63 0.69 0.76 0.84 1.18 1.81 1.80 1.47 1.78 1.93 1.71 1.50 1.38 1.23
1.04 1.12 1.04 0.90 0.86 0.85 0.80 0.78 0.83 0.75 0.73 0.77 0.76 0.67 0.64 0.67 0.76 0.75 0.64 0.68 0.67 0.73 0.84 0.80 0.74 0.72 0.70 0.69 0.74 0.82 0.83 0.70 0.95 1.51 2.12 1.95 1.73 1.99 2.05 1.87 1.70 1.61 1.46
1.25 1.36 1.36 1.32 1.24 1.16 1.08 1.18 1.20 1.05 0.94 0.90 0.97 0.88 0.87 1.12 1.21 1.05 1.09 1.04 1.01 0.99 1.03 1.05 0.97 0.88 0.85 0.78 0.86 0.93 0.80 0.81 1.26 1.88 1.96 1.57 1.80 2.18 2.30 2.13 1.96 1.87 1.78
1.57 1.39 1.30 1.44 1.55 1.64 1.71 1.60 1.58 1.55 1.48 1.38 1.47 1.39 1.42 1.62 1.51 1.50 1.58 1.43 1.28 1.22 1.20 1.36 1.22 0.95 0.88 0.94 1.04 1.02 0.95 0.98 1.29 1.78 1.91 1.75 1.95 2.33 2.53 2.41 2.18 2.10 2.10
1.88 1.70 1.48 1.45 1.54 1.75 1.93 1.87 1.83 1.80 1.78 1.70 1.72 1.55 1.77 1.94 2.02 2.04 2.10 1.89 1.81 1.74 1.75 1.74 1.65 1.40 1.23 1.19 1.19 1.23 1.27 1.20 1.38 1.70 1.84 1.63 1.77 2.21 2.65 2.68 2.43 2.31 2.28
2.27 2.11 1.93 1.73 1.71 1.87 2.10 2.20 2.13 2.13 2.10 2.20 2.30 2.07 2.10 2.12 2.19 2.48 2.48 2.60 2.27 2.25 2.30 2.22 2.01 1.91 1.73 1.56 1.47 1.44 1.49 1.42 1.49 1.69 1.69 1.66 1.76 2.10 2.52 2.73 2.70 2.70 2.64
2.85 2.51 2.27 2.16 2.00 2.00 2.09 2.32 2.44 2.30 2.37 2.47 2.60 2.48 2.49 2.56 2.67 3.00 3.08 3.03 2.78 2.80 2.96 2.98 2.78 2.53 2.29 2.15 1.93 1.88 1.82 1.81 1.92 1.95 1.92 1.84 1.72 1.79 2.22 2.64 2.93 3.11 3.08
3.05 2.93 2.74 2.63 2.57 2.39 2.33 2.55 2.70 2.62 2.57 2.57 2.74 2.84 2.82 2.90 3.20 3.32 3.57 3.50 3.27 3.25 3.30 3.26 3.43 3.39 2.89 2.54 2.35 2.29 2.27 2.20 2.24 2.30 2.34 2.25 1.99 1.87 2.00 2.30 2.60 2.81 2.93
3.23 3.00 2.93 2.65 2.61 2.80 2.80 3.04 3.05 3.12 3.25 3.16 3.13 3.33 3.35 3.40 3.53 3.58 3.58 3.60 3.50 3.47 3.75 3.85 3.79 3.72 3.46 3.10 2.85 2.60 2.48 2.53 2.35 2.29 2.32 2.32 2.34 2.03 1.84 1.84 2.01 2.23 2.54
2.71 2.80 2.95 2.89 2.81 2.85 3.03 3.39 3.57 3.73 3.92 4.10 4.11 4.27 4.21 4.03 3.97 4.03 4.00 4.06 3.91 3.95 3.90 3.77 4.08 4.01 3.84 3.49 3.00 2.74 2.50 2.50 2.38 2.10 2.09 2.15 2.21 2.11 2.00 1.81 1.86 2.03 2.35
2.62 2.81 2.98 3.13 3.28 3.23 3.25 3.48 3.94 4.15 4.30 4.67 4.73 4.74 4.82 4.83 4.71 4.67 4.60 4.60 4.46 4.34 4.19 4.14 4.15 3.93 3.77 3.53 2.99 2.75 2.47 2.17 2.12 2.09 1.89 1.93 1.95 1.83 1.91 1.92 1.98 1.85 2.05
2.80 2.98 2.96 3.12 3.46 3.70 4.06 4.06 4.29 4.73 5.09 5.22 5.33 5.32 5.23 5.13 5.12 4.97 4.79 4.87 4.72 4.50 4.26 4.15 4.12 4.00 3.64 3.49 3.45 3.07 2.51 2.13 1.97 1.83 1.82 1.82 1.70 1.71 1.91 1.93 1.92 1.85 1.78
2.80 3.06 3.21 3.32 3.73 4.23 4.78 5.29 5.70 6.05 6.05 6.17 6.12 6.01 5.72 5.52 5.39 5.21 5.18 5.02 4.79 4.62 4.38 4.19 4.11 4.00 3.66 3.57 3.59 3.52 2.84 2.33 1.83 1.46 1.56 1.58 1.54 1.60 1.65 1.62 1.61 1.66 1.70
2.79 3.06 3.24 3.54 4.14 4.96 5.49 5.96 6.53 6.87 6.59 6.32 6.03 5.96 5.88 5.80 5.67 5.50 5.44 5.18 4.94 4.66 4.33 4.07 3.93 3.81 3.68 3.63 3.52 3.62 3.12 2.51 2.02 1.63 1.45 1.35 1.39 1.54 1.55 1.56 1.50 1.45 1.52
2.87 3.00 3.19 3.75 4.46 5.13 5.68 6.30 6.91 7.20 7.26 7.06 6.50 6.01 5.59 5.30 5.08 4.93 4.88 4.70 4.51 4.24 4.00 3.73 3.63 3.56 3.66 3.49 3.41 3.24 2.99 2.64 2.38 2.02 1.70 1.49 1.41 1.43 1.46 1.46 1.44 1.45 1.47
2.56 3.03 3.35 3.91 4.59 5.24 5.97 6.70 7.16 7.39 7.40 7.02 6.24 5.48 4.94 4.60 4.32 4.08 4.01 3.91 3.77 3.58 3.40 3.32 3.32 3.27 3.24 3.09 2.94 2.90 2.89 2.82 2.53 2.21 1.91 1.65 1.55 1.47 1.45 1.46 1.55 1.56 1.55
2.45 2.84 3.32 3.64 4.24 4.92 5.52 6.10 6.30 6.45 6.39 5.99 5.57 5.08 4.65 4.12 3.66 3.31 3.16 3.07 2.94 2.84 2.84 2.86 2.90 2.87 2.87 2.83 2.74 2.63 2.54 2.54 2.39 2.29 2.03 1.81 1.78 1.66 1.55 1.48 1.44 1.49 1.56

GEFSSE_prec_meanprecacc_240.txt.gz
Total_Precipitation_Accumulation
0.25 0.25 0.25 0.19 0.18 0.19 0.20 0.24 0.31 0.37 0.27 0.23 0.23 0.26 0.26 0.19 0.18 0.16 0.15 0.16 0.20 0.27 0.31 0.35 0.40 0.44 0.50 0.53 0.52 0.48 0.44 0.44 0.46 0.51 0.57 0.64 0.76 0.81 0.86 0.83 0.95 1.00 0.80
0.22 0.22 0.24 0.20 0.17 0.18 0.20 0.23 0.30 0.37 0.29 0.26 0.24 0.23 0.23 0.21 0.20 0.19 0.17 0.19 0.22 0.27 0.30 0.31 0.35 0.38 0.41 0.40 0.42 0.49 0.47 0.45 0.54 0.68 0.82 0.80 0.90 0.92 0.98 0.94 1.13 1.41 0.94
0.20 0.19 0.20 0.26 0.21 0.18 0.20 0.21 0.27 0.35 0.32 0.31 0.26 0.22 0.23 0.23 0.22 0.23 0.22 0.24 0.30 0.36 0.36 0.35 0.37 0.40 0.41 0.40 0.42 0.45 0.51 0.54 0.68 0.97 1.34 1.24 1.18 1.13 1.08 1.02 0.99 1.02 0.91
0.20 0.18 0.17 0.22 0.25 0.20 0.19 0.21 0.27 0.36 0.34 0.35 0.28 0.23 0.23 0.23 0.25 0.27 0.26 0.29 0.36 0.42 0.43 0.43 0.43 0.42 0.42 0.41 0.44 0.46 0.54 0.64 0.89 1.24 1.70 1.60 1.51 1.55 1.40 1.21 1.06 0.99 0.92
0.27 0.21 0.18 0.20 0.23 0.22 0.22 0.22 0.32 0.38 0.36 0.39 0.31 0.26 0.25 0.25 0.25 0.29 0.32 0.33 0.37 0.42 0.41 0.37 0.37 0.38 0.42 0.41 0.46 0.50 0.60 0.83 1.13 1.49 1.93 2.11 2.20 1.89 1.43 1.19 1.17 1.17 1.09
0.33 0.25 0.19 0.20 0.21 0.24 0.27 0.28 0.39 0.37 0.39 0.42 0.36 0.35 0.34 0.31 0.30 0.34 0.40 0.42 0.42 0.45 0.44 0.42 0.41 0.41 0.45 0.43 0.48 0.56 0.71 1.04 1.22 1.55 2.08 2.32 2.06 1.82 1.47 1.29 1.26 1.19 1.07
0.39 0.29 0.22 0.23 0.25 0.31 0.38 0.39 0.50 0.47 0.48 0.51 0.52 0.49 0.44 0.42 0.41 0.41 0.46 0.49 0.48 0.47 0.46 0.47 0.49 0.47 0.46 0.44 0.48 0.56 0.72 1.02 1.24 2.00 2.17 2.15 2.04 1.88 1.66 1.44 1.28 1.17 1.08
0.42 0.33 0.31 0.29 0.35 0.45 0.52 0.53 0.63 0.57 0.60 0.60 0.63 0.60 0.54 0.48 0.45 0.45 0.47 0.51 0.54 0.58 0.55 0.50 0.46 0.45 0.45 0.47 0.46 0.53 0.71 0.81 1.00 1.63 1.94 1.89 1.68 1.68 1.78 1.54 1.37 1.24 1.15
0.60 0.46 0.42 0.39 0.42 0.54 0.67 0.67 0.69 0.63 0.64 0.68 0.73 0.72 0.64 0.55 0.49 0.49 0.54 0.57 0.59 0.59 0.53 0.48 0.45 0.44 0.47 0.49 0.53 0.55 0.67 0.83 0.99 1.41 1.55 1.69 1.46 1.55 1.80 1.69 1.43 1.29 1.24
0.93 0.76 0.66 0.63 0.62 0.64 0.71 0.78 0.75 0.70 0.74 0.77 0.79 0.75 0.70 0.61 0.56 0.58 0.57 0.62 0.59 0.62 0.62 0.60 0.57 0.56 0.57 0.57 0.61 0.67 0.74 0.82 0.88 1.20 1.83 1.81 1.49 1.82 1.99 1.78 1.58 1.48 1.33
1.05 1.14 1.07 0.93 0.89 0.88 0.82 0.82 0.89 0.81 0.80 0.85 0.84 0.76 0.73 0.74 0.82 0.80 0.69 0.71 0.72 0.79 0.89 0.84 0.78 0.76 0.73 0.72 0.78 0.86 0.87 0.75 1.00 1.55 2.15 1.97 1.76 2.04 2.11 1.94 1.78 1.71 1.57
1.27 1.39 1.40 1.36 1.28 1.20 1.12 1.23 1.25 1.09 1.00 0.98 1.06 0.95 0.93 1.17 1.25 1.09 1.14 1.10 1.07 1.05 1.08 1.10 1.01 0.92 0.88 0.80 0.89 0.96 0.83 0.84 1.30 1.92 2.00 1.61 1.86 2.26 2.37 2.19 2.02 1.94 1.90
1.60 1.42 1.33 1.47 1.57 1.67 1.75 1.63 1.61 1.57 1.52 1.44 1.54 1.45 1.46 1.65 1.55 1.54 1.61 1.47 1.34 1.29 1.27 1.41 1.27 0.98 0.90 0.97 1.07 1.05 0.97 1.00 1.32 1.81 1.94 1.78 2.00 2.42 2.61 2.48 2.24 2.16 2.18
1.90 1.73 1.51 1.48 1.56 1.77 1.95 1.90 1.85 1.82 1.80 1.73 1.76 1.61 1.81 1.97 2.05 2.08 2.14 1.91 1.83 1.77 1.80 1.79 1.70 1.43 1.25 1.22 1.22 1.26 1.29 1.21 1.40 1.73 1.85 1.65 1.80 2.28 2.76 2.80 2.54 2.39 2.34
2.30 2.15 1.96 1.75 1.72 1.88 2.12 2.25 2.15 2.14 2.10 2.21 2.32 2.09 2.13 2.15 2.22 2.52 2.52 2.64 2.30 2.27 2.33 2.25 2.05 1.95 1.76 1.58 1.50 1.47 1.52 1.44 1.51 1.71 1.71 1.68 1.80 2.14 2.60 2.84 2.82 2.80 2.73
2.90 2.56 2.31 2.19 2.02 2.01 2.11 2.39 2.45 2.31 2.38 2.49 2.61 2.49 2.50 2.57 2.68 3.02 3.12 3.06 2.81 2.82 2.98 3.00 2.80 2.57 2.33 2.18 1.96 1.91 1.86 1.86 1.96 1.98 1.93 1.86 1.75 1.83 2.29 2.72 3.02 3.19 3.16
3.11 2.98 2.78 2.67 2.60 2.41 2.37 2.61 2.72 2.63 2.58 2.59 2.75 2.86 2.83 2.91 3.21 3.34 3.59 3.52 3.30 3.28 3.32 3.27 3.45 3.42 2.94 2.58 2.38 2.32 2.31 2.23 2.29 2.34 2.37 2.27 2.01 1.90 2.05 2.37 2.67 2.88 3.00
3.31 3.08 3.00 2.70 2.65 2.84 2.84 3.11 3.07 3.14 3.27 3.18 3.16 3.35 3.37 3.43 3.55 3.60 3.60 3.63 3.53 3.49 3.78 3.89 3.83 3.76 3.50 3.13 2.88 2.63 2.51 2.56 2.38 2.33 2.36 2.34 2.35 2.04 1.86 1.89 2.07 2.29 2.60
2.78 2.87 2.99 2.92 2.86 2.91 3.08 3.44 3.59 3.76 3.96 4.14 4.15 4.32 4.25 4.06 4.01 4.06 4.02 4.08 3.94 3.99 3.93 3.81 4.12 4.05 3.88 3.52 3.03 2.77 2.52 2.53 2.41 2.15 2.14 2.20 2.23 2.12 2.01 1.83 1.90 2.08 2.41
2.70 2.87 3.04 3.18 3.36 3.29 3.29 3.51 3.97 4.19 4.34 4.72 4.78 4.79 4.87 4.87 4.74 4.71 4.63 4.63 4.48 4.37 4.23 4.16 4.19 3.96 3.81 3.57 3.03 2.78 2.50 2.21 2.15 2.13 1.93 1.97 1.98 1.86 1.92 1.92 2.00 1.88 2.10
2.88 3.05 3.02 3.21 3.56 3.77 4.11 4.10 4.33 4.77 5.12 5.26 5.37 5.35 5.27 5.17 5.17 5.01 4.83 4.91 4.75 4.53 4.30 4.19 4.15 4.03 3.67 3.55 3.51 3.12 2.56 2.18 2.02 1.86 1.85 1.85 1.74 1.75 1.96 1.96 1.93 1.86 1.80
2.86 3.13 3.26 3.41 3.85 4.32 4.83 5.34 5.75 6.09 6.09 6.19 6.14 6.03 5.74 5.55 5.43 5.27 5.24 5.09 4.84 4.67 4.42 4.23 4.15 4.03 3.69 3.62 3.63 3.57 2.89 2.37 1.86 1.49 1.58 1.61 1.57 1.64 1.70 1.66 1.64 1.70 1.74
2.83 3.11 3.30 3.63 4.26 5.07 5.56 6.02 6.60 6.92 6.63 6.34 6.05 5.97 5.89 5.82 5.70 5.54 5.49 5.23 4.99 4.72 4.37 4.11 3.96 3.84 3.71 3.67 3.56 3.67 3.16 2.54 2.04 1.65 1.46 1.36 1.41 1.57 1.58 1.59 1.54 1.50 1.56
2.89 3.02 3.24 3.83 4.56 5.22 5.77 6.38 6.98 7.28 7.32 7.10 6.52 6.02 5.60 5.32 5.11 4.97 4.91 4.73 4.54 4.27 4.03 3.76 3.66 3.59 3.69 3.52 3.45 3.28 3.02 2.66 2.40 2.04 1.71 1.50 1.43 1.44 1.49 1.49 1.47 1.48 1.52
2.57 3.05 3.38 3.96 4.65 5.31 6.05 6.79 7.24 7.47 7.46 7.07 6.27 5.49 4.95 4.63 4.35 4.12 4.04 3.93 3.78 3.60 3.43 3.35 3.35 3.31 3.28 3.13 2.98 2.94 2.93 2.85 2.55 2.24 1.93 1.67 1.58 1.50 1.48 1.49 1.58 1.59 1.59
2.48 2.87 3.35 3.67 4.28 4.96 5.57 6.14 6.35 6.52 6.46 6.04 5.60 5.10 4.69 4.17 3.71 3.35 3.19 3.10 2.97 2.86 2.85 2.88 2.92 2.90 2.90 2.87 2.79 2.67 2.58 2.57 2.42 2.32 2.07 1.84 1.82 1.69 1.58 1.52 1.48 1.53 1.59

GEFSSE_prec_meanprecacc_246.txt.gz
Total_Precipitation_Accumulation
0.27 0.27 0.27 0.20 0.20 0.20 0.21 0.25 0.33 0.40 0.30 0.25 0.25 0.28 0.29 0.23 0.20 0.18 0.17 0.19 0.22 0.29 0.33 0.39 0.45 0.50 0.57 0.61 0.61 0.58 0.60 0.65 0.63 0.66 0.72 0.75 0.85 0.90 0.94 0.91 1.02 1.06 0.88
0.25 0.24 0.26 0.22 0.18 0.19 0.22 0.25 0.32 0.39 0.32 0.30 0.26 0.25 0.26 0.25 0.23 0.21 0.20 0.22 0.25 0.31 0.33 0.35 0.39 0.43 0.47 0.48 0.53 0.59 0.62 0.65 0.74 0.90 1.04 0.94 1.00 1.01 1.07 1.03 1.22 1.50 1.01
0.22 0.22 0.22 0.28 0.22 0.19 0.21 0.23 0.29 0.38 0.36 0.35 0.31 0.26 0.27 0.27 0.25 0.26 0.25 0.29 0.35 0.40 0.41 0.41 0.43 0.46 0.46 0.47 0.52 0.54 0.62 0.71 0.89 1.19 1.52 1.36 1.28 1.22 1.16 1.11 1.09 1.13 0.99
0.21 0.20 0.19 0.25 0.27 0.21 0.21 0.23 0.30 0.39 0.38 0.40 0.34 0.29 0.28 0.27 0.28 0.30 0.31 0.33 0.41 0.47 0.47 0.48 0.47 0.48 0.47 0.46 0.52 0.55 0.62 0.76 1.02 1.37 1.80 1.67 1.58 1.64 1.49 1.31 1.16 1.08 0.99
0.28 0.24 0.22 0.23 0.26 0.24 0.24 0.25 0.34 0.41 0.40 0.44 0.38 0.34 0.32 0.31 0.30 0.32 0.36 0.38 0.42 0.47 0.45 0.41 0.40 0.42 0.46 0.45 0.51 0.58 0.69 0.92 1.22 1.57 1.99 2.18 2.28 1.98 1.53 1.28 1.26 1.26 1.17
0.35 0.28 0.22 0.25 0.25 0.28 0.31 0.32 0.42 0.41 0.44 0.50 0.44 0.43 0.41 0.38 0.37 0.39 0.44 0.46 0.46 0.49 0.48 0.46 0.44 0.44 0.50 0.49 0.54 0.62 0.77 1.09 1.28 1.62 2.15 2.39 2.13 1.92 1.58 1.37 1.35 1.28 1.14
0.41 0.31 0.25 0.27 0.31 0.37 0.43 0.44 0.56 0.52 0.54 0.61 0.60 0.57 0.52 0.49 0.46 0.46 0.50 0.54 0.52 0.51 0.51 0.52 0.54 0.51 0.50 0.49 0.54 0.62 0.79 1.06 1.27 2.04 2.21 2.21 2.11 1.97 1.77 1.54 1.40 1.29 1.16
0.44 0.35 0.32 0.32 0.42 0.52 0.59 0.58 0.69 0.64 0.67 0.69 0.71 0.68 0.62 0.56 0.50 0.49 0.52 0.55 0.59 0.62 0.59 0.53 0.50 0.49 0.49 0.51 0.52 0.60 0.79 0.88 1.04 1.64 1.95 1.91 1.72 1.74 1.88 1.63 1.44 1.34 1.24
0.62 0.48 0.44 0.41 0.48 0.64 0.76 0.72 0.73 0.68 0.72 0.76 0.81 0.80 0.72 0.63 0.56 0.55 0.59 0.62 0.64 0.63 0.57 0.52 0.49 0.49 0.51 0.52 0.58 0.62 0.75 0.93 1.07 1.46 1.58 1.71 1.48 1.59 1.88 1.76 1.48 1.35 1.31
0.95 0.77 0.66 0.65 0.66 0.70 0.75 0.81 0.78 0.74 0.80 0.85 0.88 0.84 0.78 0.69 0.64 0.64 0.62 0.67 0.63 0.67 0.67 0.65 0.62 0.61 0.60 0.60 0.64 0.71 0.79 0.88 0.94 1.25 1.88 1.84 1.51 1.86 2.05 1.85 1.64 1.53 1.39
1.08 1.17 1.09 0.94 0.91 0.90 0.85 0.86 0.93 0.87 0.86 0.91 0.92 0.86 0.81 0.82 0.91 0.88 0.76 0.78 0.78 0.85 0.94 0.90 0.84 0.81 0.77 0.75 0.81 0.89 0.91 0.78 1.03 1.59 2.18 1.98 1.77 2.07 2.16 2.01 1.84 1.76 1.62
1.29 1.43 1.44 1.39 1.31 1.22 1.14 1.26 1.29 1.13 1.04 1.02 1.11 1.02 1.00 1.25 1.34 1.17 1.22 1.17 1.14 1.12 1.15 1.15 1.08 0.98 0.91 0.83 0.91 0.99 0.86 0.86 1.32 1.95 2.03 1.62 1.88 2.30 2.44 2.27 2.09 2.01 1.97
1.64 1.47 1.38 1.51 1.60 1.70 1.78 1.66 1.64 1.60 1.57 1.49 1.58 1.50 1.53 1.72 1.63 1.62 1.69 1.53 1.40 1.36 1.35 1.48 1.33 1.02 0.93 1.00 1.10 1.07 0.99 1.02 1.34 1.83 1.97 1.79 2.02 2.46 2.69 2.56 2.31 2.24 2.29
1.95 1.79 1.57 1.54 1.61 1.81 1.98 1.92 1.86 1.84 1.83 1.77 1.81 1.66 1.87 2.04 2.12 2.13 2.21 1.98 1.89 1.83 1.88 1.88 1.76 1.48 1.29 1.26 1.24 1.28 1.31 1.23 1.41 1.74 1.88 1.66 1.81 2.30 2.81 2.86 2.59 2.45 2.42
2.35 2.21 2.05 1.84 1.79 1.92 2.16 2.28 2.17 2.17 2.13 2.24 2.36 2.13 2.17 2.19 2.27 2.57 2.58 2.72 2.38 2.33 2.40 2.36 2.13 2.00 1.81 1.63 1.53 1.50 1.55 1.47 1.53 1.72 1.72 1.69 1.81 2.16 2.64 2.90 2.87 2.85 2.79
2.94 2.65 2.40 2.24 2.08 2.06 2.15 2.43 2.49 2.34 2.41 2.52 2.65 2.54 2.53 2.60 2.71 3.05 3.16 3.12 2.88 2.90 3.04 3.14 2.91 2.65 2.37 2.23 2.01 1.95 1.90 1.89 1.99 1.99 1.94 1.87 1.76 1.85 2.31 2.77 3.07 3.25 3.22
3.15 3.04 2.82 2.70 2.62 2.44 2.40 2.66 2.74 2.65 2.60 2.61 2.79 2.90 2.87 2.94 3.24 3.37 3.62 3.56 3.34 3.35 3.40 3.38 3.57 3.51 2.99 2.63 2.43 2.36 2.35 2.27 2.32 2.38 2.40 2.29 2.02 1.92 2.07 2.40 2.71 2.93 3.06
3.35 3.12 3.04 2.73 2.67 2.86 2.87 3.15 3.09 3.16 3.29 3.20 3.18 3.39 3.42 3.47 3.59 3.65 3.64 3.66 3.57 3.55 3.86 3.97 3.93 3.82 3.54 3.16 2.92 2.67 2.54 2.60 2.41 2.37 2.39 2.37 2.38 2.05 1.88 1.91 2.10 2.33 2.70
2.82 2.90 3.02 2.94 2.88 2.94 3.12 3.48 3.61 3.77 3.97 4.16 4.17 4.35 4.28 4.10 4.04 4.11 4.06 4.11 3.98 4.03 4.00 3.88 4.22 4.13 3.96 3.56 3.07 2.81 2.57 2.57 2.45 2.19 2.17 2.23 2.26 2.14 2.02 1.84 1.92 2.11 2.47
2.73 2.89 3.05 3.20 3.39 3.33 3.34 3.56 3.99 4.21 4.36 4.74 4.80 4.81 4.89 4.90 4.77 4.74 4.67 4.67 4.52 4.41 4.28 4.22 4.25 4.04 3.92 3.64 3.10 2.84 2.55 2.26 2.20 2.17 1.96 2.01 2.02 1.88 1.94 1.95 2.02 1.90 2.12
2.90 3.07 3.04 3.24 3.59 3.81 4.17 4.15 4.34 4.78 5.14 5.28 5.38 5.37 5.29 5.20 5.20 5.05 4.87 4.95 4.79 4.56 4.33 4.24 4.20 4.08 3.74 3.63 3.59 3.18 2.60 2.23 2.06 1.90 1.89 1.88 1.76 1.77 1.98 1.99 1.96 1.88 1.82
2.87 3.14 3.27 3.42 3.87 4.35 4.88 5.39 5.77 6.10 6.11 6.21 6.16 6.04 5.76 5.56 5.47 5.31 5.28 5.12 4.87 4.70 4.45 4.27 4.20 4.07 3.74 3.68 3.70 3.65 2.95 2.42 1.90 1.51 1.61 1.64 1.59 1.66 1.72 1.68 1.68 1.73 1.77
2.83 3.11 3.30 3.65 4.30 5.10 5.60 6.06 6.62 6.95 6.66 6.38 6.08 6.00 5.92 5.85 5.74 5.57 5.52 5.26 5.02 4.75 4.40 4.13 4.00 3.89 3.76 3.72 3.62 3.74 3.23 2.59 2.08 1.68 1.49 1.39 1.44 1.59 1.59 1.61 1.57 1.54 1.61
2.89 3.03 3.26 3.88 4.61 5.26 5.81 6.42 7.01 7.30 7.35 7.13 6.57 6.07 5.65 5.36 5.14 5.00 4.94 4.77 4.58 4.30 4.06 3.79 3.69 3.62 3.73 3.57 3.50 3.32 3.08 2.71 2.45 2.08 1.74 1.53 1.46 1.47 1.51 1.52 1.50 1.51 1.55
2.58 3.08 3.42 4.00 4.68 5.34 6.09 6.83 7.28 7.51 7.50 7.12 6.33 5.55 5.00 4.67 4.39 4.15 4.07 3.97 3.82 3.63 3.45 3.37 3.37 3.34 3.31 3.16 3.02 2.99 2.97 2.90 2.59 2.28 1.97 1.71 1.61 1.52 1.51 1.52 1.61 1.62 1.61
2.50 2.92 3.39 3.71 4.30 4.99 5.61 6.19 6.41 6.60 6.53 6.11 5.67 5.17 4.75 4.23 3.76 3.40 3.23 3.14 3.00 2.89 2.88 2.90 2.95 2.93 2.93 2.90 2.83 2.71 2.63 2.62 2.45 2.35 2.10 1.86 1.84 1.71 1.61 1.55 1.49 1.54 1.61